Observation data for Welch on 02/14/2020      Previous  Date  Next       Current Mesonet Observations  Soil Data  Daily Summary Page  Observations in Plain Language
KWE2 140600Z 11012KT M02/M02 A3028 RMK A01 T10221022  RH  100%=      5-min Rain = 0
KWE2 140601Z 11011KT M02/M02 A3028 RMK A01 T10221022  RH  100%=      5-min Rain = 0
KWE2 140602Z 11010KT M02/M02 A3028 RMK A01 T10221022  RH  100%=      5-min Rain = 0
KWE2 140603Z 11011KT M02/M02 A3028 RMK A01 T10221022  RH  100%=      5-min Rain = 0
KWE2 140604Z 11011KT M02/M02 A3028 RMK A01 T10221022  RH  100%=      5-min Rain = 0
KWE2 140605Z 11011KT M02/M02 A3028 RMK A01 T10221022  RH  100%=      5-min Rain = 0
KWE2 140606Z 11010KT M02/M02 A3028 RMK A01 T10221023  RH  100%=      5-min Rain = 0
KWE2 140607Z 11010KT M02/M02 A3028 RMK A01 T10231023  RH  100%=      5-min Rain = 0
KWE2 140608Z 11012KT M02/M02 A3028 RMK A01 T10231023  RH  100%=      5-min Rain = 0
KWE2 140609Z 12013KT M02/M02 A3028 RMK A01 T10231023  RH  100%=      5-min Rain = 0
KWE2 140610Z 11012KT M02/M02 A3028 RMK A01 T10231023  RH  100%=      5-min Rain = 0
KWE2 140611Z 11012KT M02/M02 A3028 RMK A01 T10231023  RH  100%=      5-min Rain = 0
KWE2 140612Z 11010KT M02/M02 A3028 RMK A01 T10231023  RH  100%=      5-min Rain = 0
KWE2 140613Z 12010KT M02/M02 A3028 RMK A01 T10231023  RH  100%=      5-min Rain = 0
KWE2 140614Z 12011KT M02/M02 A3028 RMK A01 T10231023  RH  100%=      5-min Rain = 0
KWE2 140615Z 12011KT M02/M02 A3028 RMK A01 T10241024  RH  100%=      5-min Rain = 0
KWE2 140616Z 11012KT M02/M02 A3028 RMK A01 T10231024  RH  100%=      5-min Rain = 0
KWE2 140617Z 12011KT M02/M02 A3028 RMK A01 T10231024  RH  100%=      5-min Rain = 0
KWE2 140618Z 12010KT M02/M02 A3028 RMK A01 T10231023  RH  100%=      5-min Rain = 0
KWE2 140619Z 12010KT M02/M02 A3028 RMK A01 T10231023  RH  100%=      5-min Rain = 0
KWE2 140620Z 12011KT M02/M02 A3028 RMK A01 T10241024  RH  100%=      5-min Rain = 0
KWE2 140621Z 12010KT M02/M02 A3028 RMK A01 T10241024  RH  100%=      5-min Rain = 0
KWE2 140622Z 12011KT M02/M02 A3028 RMK A01 T10241024  RH  100%=      5-min Rain = 0
KWE2 140623Z 12010KT M02/M02 A3028 RMK A01 T10241024  RH  100%=      5-min Rain = 0
KWE2 140624Z 12011KT M02/M02 A3028 RMK A01 T10241024  RH  100%=      5-min Rain = 0
KWE2 140625Z 12011KT M02/M02 A3029 RMK A01 T10241024  RH  100%=      5-min Rain = 0
KWE2 140626Z 12012KT M02/M02 A3029 RMK A01 T10241024  RH  100%=      5-min Rain = 0
KWE2 140627Z 12011KT M02/M02 A3029 RMK A01 T10241024  RH  100%=      5-min Rain = 0
KWE2 140628Z 12011KT M02/M02 A3029 RMK A01 T10241024  RH  100%=      5-min Rain = 0
KWE2 140629Z 12010KT M02/M02 A3029 RMK A01 T10241024  RH  100%=      5-min Rain = 0
KWE2 140630Z 11011KT M02/M02 A3029 RMK A01 T10241024  RH  100%=      5-min Rain = 0
KWE2 140631Z 12011KT M02/M02 A3029 RMK A01 T10241024  RH  100%=      5-min Rain = 0
KWE2 140632Z 11012KT M02/M02 A3029 RMK A01 T10241024  RH  100%=      5-min Rain = 0
KWE2 140633Z 11012KT M02/M02 A3029 RMK A01 T10241024  RH  100%=      5-min Rain = 0
KWE2 140634Z 12012KT M02/M02 A3029 RMK A01 T10241024  RH  100%=      5-min Rain = 0
KWE2 140635Z 12012KT M02/M02 A3029 RMK A01 T10241024  RH  100%=      5-min Rain = 0
KWE2 140636Z 12010KT M02/M02 A3029 RMK A01 T10241024  RH  100%=      5-min Rain = 0
KWE2 140637Z 12011KT M02/M02 A3029 RMK A01 T10241024  RH  100%=      5-min Rain = 0
KWE2 140638Z 12011KT M02/M02 A3029 RMK A01 T10241024  RH  100%=      5-min Rain = 0
KWE2 140639Z 12010KT M02/M02 A3029 RMK A01 T10241024  RH  100%=      5-min Rain = 0
KWE2 140640Z 12011KT M02/M02 A3029 RMK A01 T10241024  RH  100%=      5-min Rain = 0
KWE2 140641Z 12012KT M02/M02 A3029 RMK A01 T10241024  RH  100%=      5-min Rain = 0
KWE2 140642Z 12012KT M03/M03 A3029 RMK A01 T10251025  RH  100%=      5-min Rain = 0
KWE2 140643Z 12013KT M03/M03 A3029 RMK A01 T10251025  RH  100%=      5-min Rain = 0
KWE2 140644Z 12012KT M03/M03 A3029 RMK A01 T10251025  RH  100%=      5-min Rain = 0
KWE2 140645Z 12011KT M03/M03 A3029 RMK A01 T10251025  RH  100%=      5-min Rain = 0
KWE2 140646Z 12011KT M03/M03 A3029 RMK A01 T10251025  RH  100%=      5-min Rain = 0
KWE2 140647Z 12011KT M03/M03 A3029 RMK A01 T10251025  RH  100%=      5-min Rain = 0
KWE2 140648Z 12011KT M03/M03 A3029 RMK A01 T10251025  RH  100%=      5-min Rain = 0
KWE2 140649Z 12011KT M03/M03 A3029 RMK A01 T10251025  RH  100%=      5-min Rain = 0
KWE2 140650Z 12010KT M03/M03 A3029 RMK A01 T10251025  RH  100%=      5-min Rain = 0
KWE2 140651Z 12011KT M03/M03 A3029 RMK A01 T10251025  RH  100%=      5-min Rain = 0
KWE2 140652Z 12011KT M03/M03 A3029 RMK A01 T10251025  RH  100%=      5-min Rain = 0
KWE2 140653Z 12011KT M03/M03 A3029 RMK A01 T10251025  RH  100%=      5-min Rain = 0
KWE2 140654Z 12012KT M03/M03 A3029 RMK A01 T10251026  RH  100%=      5-min Rain = 0
KWE2 140655Z 11012KT M03/M03 A3029 RMK A01 T10251025  RH  100%=      5-min Rain = 0
KWE2 140656Z 11010KT M03/M03 A3029 RMK A01 T10251025  RH  100%=      5-min Rain = 0
KWE2 140657Z 11012KT M03/M03 A3029 RMK A01 T10251025  RH  100%=      5-min Rain = 0
KWE2 140658Z 10012KT M03/M03 A3029 RMK A01 T10251025  RH  100%=      5-min Rain = 0
KWE2 140659Z 11011KT M03/M03 A3029 RMK A01 T10251025  RH  100%=      5-min Rain = 0
KWE2 140700Z 11011KT M03/M03 A3029 RMK A01 T10251025  RH  100%=      5-min Rain = 0
KWE2 140701Z 11010KT M03/M03 A3029 RMK A01 T10251025  RH  100%=      5-min Rain = 0
KWE2 140702Z 11011KT M03/M03 A3029 RMK A01 T10251025  RH  100%=      5-min Rain = 0
KWE2 140703Z 11012KT M03/M03 A3029 RMK A01 T10251025  RH  100%=      5-min Rain = 0
KWE2 140704Z 11012KT M03/M03 A3029 RMK A01 T10251025  RH  100%=      5-min Rain = 0
KWE2 140705Z 11013KT M03/M03 A3029 RMK A01 T10251025  RH  100%=      5-min Rain = 0
KWE2 140706Z 11012KT M03/M03 A3029 RMK A01 T10251025  RH  100%=      5-min Rain = 0
KWE2 140707Z 11013KT M03/M03 A3029 RMK A01 T10251025  RH  100%=      5-min Rain = 0
KWE2 140708Z 11013KT M03/M03 A3029 RMK A01 T10251025  RH  100%=      5-min Rain = 0
KWE2 140709Z 11012KT M03/M03 A3029 RMK A01 T10251025  RH  100%=      5-min Rain = 0
KWE2 140710Z 11012KT M03/M03 A3029 RMK A01 T10251025  RH  100%=      5-min Rain = 0
KWE2 140711Z 11013KT M02/M02 A3029 RMK A01 T10241024  RH  100%=      5-min Rain = 0
KWE2 140712Z 11011KT M02/M02 A3029 RMK A01 T10241024  RH  100%=      5-min Rain = 0
KWE2 140713Z 11011KT M02/M02 A3029 RMK A01 T10241024  RH  100%=      5-min Rain = 0
KWE2 140714Z 11013KT M02/M02 A3029 RMK A01 T10241024  RH  100%=      5-min Rain = 0
KWE2 140715Z 11012KT M02/M02 A3029 RMK A01 T10241024  RH  100%=      5-min Rain = 0
KWE2 140716Z 11012KT M02/M02 A3029 RMK A01 T10241024  RH  100%=      5-min Rain = 0
KWE2 140717Z 11013KT M02/M02 A3029 RMK A01 T10231023  RH  100%=      5-min Rain = 0
KWE2 140718Z 11014KT M02/M02 A3029 RMK A01 T10231023  RH  100%=      5-min Rain = 0
KWE2 140719Z 11013KT M02/M02 A3029 RMK A01 T10231023  RH  100%=      5-min Rain = 0
KWE2 140720Z 11014KT M02/M02 A3029 RMK A01 T10231023  RH  100%=      5-min Rain = 0
KWE2 140721Z 11013KT M02/M02 A3029 RMK A01 T10231023  RH  100%=      5-min Rain = 0
KWE2 140722Z 11011KT M02/M02 A3029 RMK A01 T10231023  RH  100%=      5-min Rain = 0
KWE2 140723Z 11015KT M02/M02 A3029 RMK A01 T10221022  RH  100%=      5-min Rain = 0
KWE2 140724Z 11014KT M02/M02 A3029 RMK A01 T10231023  RH  100%=      5-min Rain = 0
KWE2 140725Z 11013KT M02/M02 A3029 RMK A01 T10221022  RH  100%=      5-min Rain = 0
KWE2 140726Z 12011KT M02/M02 A3029 RMK A01 T10221022  RH  100%=      5-min Rain = 0
KWE2 140727Z 12012KT M02/M02 A3029 RMK A01 T10221022  RH  100%=      5-min Rain = 0
KWE2 140728Z 12011KT M02/M02 A3029 RMK A01 T10221022  RH  100%=      5-min Rain = 0
KWE2 140729Z 12013KT M02/M02 A3029 RMK A01 T10221022  RH  100%=      5-min Rain = 0
KWE2 140730Z 11015KT M02/M02 A3029 RMK A01 T10211021  RH  100%=      5-min Rain = 0
KWE2 140731Z 12015KT M02/M02 A3029 RMK A01 T10211022  RH  100%=      5-min Rain = 0
KWE2 140732Z 12017KT M02/M02 A3029 RMK A01 T10221022  RH  100%=      5-min Rain = 0
KWE2 140733Z 12013KT M02/M02 A3029 RMK A01 T10211021  RH  100%=      5-min Rain = 0
KWE2 140734Z 12013KT M02/M02 A3029 RMK A01 T10221022  RH  100%=      5-min Rain = 0
KWE2 140735Z 12014KT M02/M02 A3029 RMK A01 T10211021  RH  100%=      5-min Rain = 0
KWE2 140736Z 12014KT M02/M02 A3029 RMK A01 T10221022  RH  100%=      5-min Rain = 0
KWE2 140737Z 12015KT M02/M02 A3029 RMK A01 T10221022  RH  100%=      5-min Rain = 0
KWE2 140738Z 12014KT M02/M02 A3029 RMK A01 T10221022  RH  100%=      5-min Rain = 0
KWE2 140739Z 11017KT M02/M02 A3029 RMK A01 T10221022  RH  100%=      5-min Rain = 0
KWE2 140740Z 11017KT M02/M02 A3029 RMK A01 T10221022  RH  100%=      5-min Rain = 0
KWE2 140741Z 11016KT M02/M02 A3029 RMK A01 T10221022  RH  100%=      5-min Rain = 0
KWE2 140742Z 12013KT M02/M02 A3029 RMK A01 T10221022  RH  100%=      5-min Rain = 0
KWE2 140743Z 12014KT M02/M02 A3029 RMK A01 T10211021  RH  100%=      5-min Rain = 0
KWE2 140744Z 11015KT M02/M02 A3029 RMK A01 T10211021  RH  100%=      5-min Rain = 0
KWE2 140745Z 11016KT M02/M02 A3029 RMK A01 T10211021  RH  100%=      5-min Rain = 0
KWE2 140746Z 12014KT M02/M02 A3029 RMK A01 T10211021  RH  100%=      5-min Rain = 0
KWE2 140747Z 11015KT M02/M02 A3029 RMK A01 T10201020  RH  100%=      5-min Rain = 0
KWE2 140748Z 11014KT M02/M02 A3029 RMK A01 T10201020  RH  100%=      5-min Rain = 0
KWE2 140749Z 12016KT M02/M02 A3029 RMK A01 T10201020  RH  100%=      5-min Rain = 0
KWE2 140750Z 12014KT M02/M02 A3029 RMK A01 T10201020  RH  100%=      5-min Rain = 0
KWE2 140751Z 11016KT M02/M02 A3029 RMK A01 T10201020  RH  100%=      5-min Rain = 0
KWE2 140752Z 12014KT M02/M02 A3029 RMK A01 T10201020  RH  100%=      5-min Rain = 0
KWE2 140753Z 12014KT M02/M02 A303 RMK A01 T10201020  RH  100%=      5-min Rain = 0
KWE2 140754Z 11015KT M02/M02 A3029 RMK A01 T10201020  RH  100%=      5-min Rain = 0
KWE2 140755Z 12015KT M02/M02 A3029 RMK A01 T10201020  RH  100%=      5-min Rain = 0
KWE2 140756Z 12013KT M02/M02 A303 RMK A01 T10201020  RH  100%=      5-min Rain = 0
KWE2 140757Z 12015KT M02/M02 A303 RMK A01 T10201020  RH  100%=      5-min Rain = 0
KWE2 140758Z 12013KT M02/M02 A3029 RMK A01 T10201020  RH  100%=      5-min Rain = 0
KWE2 140759Z 12013KT M02/M02 A303 RMK A01 T10201020  RH  100%=      5-min Rain = 0
KWE2 140800Z 12013KT M02/M02 A3029 RMK A01 T10201020  RH  100%=      5-min Rain = 0
KWE2 140801Z 12013KT M02/M02 A3029 RMK A01 T10201020  RH  100%=      5-min Rain = 0
KWE2 140802Z 12014KT M02/M02 A3029 RMK A01 T10201020  RH  100%=      5-min Rain = 0
KWE2 140803Z 12014KT M02/M02 A3029 RMK A01 T10201020  RH  100%=      5-min Rain = 0
KWE2 140804Z 12012KT M02/M02 A3029 RMK A01 T10201020  RH  100%=      5-min Rain = 0
KWE2 140805Z 12014KT M02/M02 A3029 RMK A01 T10201020  RH  100%=      5-min Rain = 0
KWE2 140806Z 12014KT M02/M02 A303 RMK A01 T10201020  RH  100%=      5-min Rain = 0
KWE2 140807Z 12013KT M02/M02 A303 RMK A01 T10201020  RH  100%=      5-min Rain = 0
KWE2 140808Z 12014KT M02/M02 A303 RMK A01 T10201020  RH  100%=      5-min Rain = 0
KWE2 140809Z 12012KT M02/M02 A3029 RMK A01 T10201020  RH  100%=      5-min Rain = 0
KWE2 140810Z 12012KT M02/M02 A3029 RMK A01 T10201020  RH  100%=      5-min Rain = 0
KWE2 140811Z 12012KT M02/M02 A3029 RMK A01 T10201020  RH  100%=      5-min Rain = 0
KWE2 140812Z 11011KT M02/M02 A3029 RMK A01 T10201020  RH  100%=      5-min Rain = 0
KWE2 140813Z 12011KT M02/M02 A303 RMK A01 T10201020  RH  100%=      5-min Rain = 0
KWE2 140814Z 12012KT M02/M02 A303 RMK A01 T10191019  RH  100%=      5-min Rain = 0
KWE2 140815Z 12015KT M02/M02 A303 RMK A01 T10191019  RH  100%=      5-min Rain = 0
KWE2 140816Z 13012KT M02/M02 A303 RMK A01 T10191019  RH  100%=      5-min Rain = 0
KWE2 140817Z 13009KT M02/M02 A3029 RMK A01 T10191019  RH  100%=      5-min Rain = 0
KWE2 140818Z 12009KT M02/M02 A3029 RMK A01 T10181018  RH  100%=      5-min Rain = 0
KWE2 140819Z 12010KT M02/M02 A3029 RMK A01 T10181018  RH  100%=      5-min Rain = 0
KWE2 140820Z 12012KT M02/M02 A3029 RMK A01 T10181018  RH  100%=      5-min Rain = 0
KWE2 140821Z 13013KT M02/M02 A3029 RMK A01 T10181018  RH  100%=      5-min Rain = 0
KWE2 140822Z 12013KT M02/M02 A303 RMK A01 T10191019  RH  100%=      5-min Rain = 0
KWE2 140823Z 13012KT M02/M02 A303 RMK A01 T10181018  RH  100%=      5-min Rain = 0
KWE2 140824Z 13012KT M02/M02 A303 RMK A01 T10181018  RH  100%=      5-min Rain = 0
KWE2 140825Z 12013KT M02/M02 A303 RMK A01 T10181018  RH  100%=      5-min Rain = 0
KWE2 140826Z 12014KT M02/M02 A3029 RMK A01 T10181018  RH  100%=      5-min Rain = 0
KWE2 140827Z 13013KT M02/M02 A3029 RMK A01 T10181018  RH  100%=      5-min Rain = 0
KWE2 140828Z 13013KT M02/M02 A3029 RMK A01 T10181018  RH  100%=      5-min Rain = 0
KWE2 140829Z 13013KT M02/M02 A303 RMK A01 T10181018  RH  100%=      5-min Rain = 0
KWE2 140830Z 13011KT M02/M02 A303 RMK A01 T10181018  RH  100%=      5-min Rain = 0
KWE2 140831Z 13010KT M02/M02 A303 RMK A01 T10181018  RH  100%=      5-min Rain = 0
KWE2 140832Z 13013KT M02/M02 A303 RMK A01 T10181018  RH  100%=      5-min Rain = 0
KWE2 140833Z 13013KT M02/M02 A303 RMK A01 T10181018  RH  100%=      5-min Rain = 0
KWE2 140834Z 13012KT M02/M02 A303 RMK A01 T10181018  RH  100%=      5-min Rain = 0
KWE2 140835Z 13011KT M02/M02 A303 RMK A01 T10181018  RH  100%=      5-min Rain = 0
KWE2 140836Z 12012KT M02/M02 A303 RMK A01 T10181018  RH  100%=      5-min Rain = 0
KWE2 140837Z 13012KT M02/M02 A303 RMK A01 T10181018  RH  100%=      5-min Rain = 0
KWE2 140838Z 13010KT M02/M02 A303 RMK A01 T10181018  RH  100%=      5-min Rain = 0
KWE2 140839Z 13012KT M02/M02 A303 RMK A01 T10181018  RH  100%=      5-min Rain = 0
KWE2 140840Z 12012KT M02/M02 A303 RMK A01 T10181018  RH  100%=      5-min Rain = 0
KWE2 140841Z 13014KT M02/M02 A303 RMK A01 T10181018  RH  100%=      5-min Rain = 0
KWE2 140842Z 13011KT M02/M02 A303 RMK A01 T10181018  RH  100%=      5-min Rain = 0
KWE2 140843Z 13011KT M02/M02 A303 RMK A01 T10171017  RH  100%=      5-min Rain = 0
KWE2 140844Z 13012KT M02/M02 A303 RMK A01 T10181018  RH  100%=      5-min Rain = 0
KWE2 140845Z 13012KT M02/M02 A303 RMK A01 T10171017  RH  100%=      5-min Rain = 0
KWE2 140846Z 13010KT M02/M02 A303 RMK A01 T10181018  RH  100%=      5-min Rain = 0
KWE2 140847Z 13011KT M02/M02 A303 RMK A01 T10171017  RH  100%=      5-min Rain = 0
KWE2 140848Z 13012KT M02/M02 A303 RMK A01 T10171017  RH  100%=      5-min Rain = 0
KWE2 140849Z 13011KT M02/M02 A303 RMK A01 T10171017  RH  100%=      5-min Rain = 0
KWE2 140850Z 13010KT M02/M02 A303 RMK A01 T10171017  RH  100%=      5-min Rain = 0
KWE2 140851Z 13011KT M02/M02 A303 RMK A01 T10171017  RH  100%=      5-min Rain = 0
KWE2 140852Z 13012KT M02/M02 A303 RMK A01 T10171017  RH  100%=      5-min Rain = 0
KWE2 140853Z 13013KT M02/M02 A303 RMK A01 T10171017  RH  100%=      5-min Rain = 0
KWE2 140854Z 13014KT M02/M02 A303 RMK A01 T10171017  RH  100%=      5-min Rain = 0
KWE2 140855Z 13012KT M02/M02 A303 RMK A01 T10171017  RH  100%=      5-min Rain = 0
KWE2 140856Z 13013KT M02/M02 A303 RMK A01 T10171017  RH  100%=      5-min Rain = 0
KWE2 140857Z 13014KT M02/M02 A303 RMK A01 T10171017  RH  100%=      5-min Rain = 0
KWE2 140858Z 13015KT M02/M02 A303 RMK A01 T10171017  RH  100%=      5-min Rain = 0
KWE2 140859Z 13014KT M02/M02 A303 RMK A01 T10181018  RH  100%=      5-min Rain = 0
KWE2 140900Z 13014KT M02/M02 A303 RMK A01 T10171017  RH  100%=      5-min Rain = 0
KWE2 140901Z 13013KT M02/M02 A303 RMK A01 T10181018  RH  100%=      5-min Rain = 0
KWE2 140902Z 12013KT M02/M02 A303 RMK A01 T10181018  RH  100%=      5-min Rain = 0
KWE2 140903Z 13011KT M02/M02 A303 RMK A01 T10181018  RH  100%=      5-min Rain = 0
KWE2 140904Z 13011KT M02/M02 A303 RMK A01 T10181018  RH  100%=      5-min Rain = 0
KWE2 140905Z 13012KT M02/M02 A303 RMK A01 T10181018  RH  100%=      5-min Rain = 0
KWE2 140906Z 13012KT M02/M02 A303 RMK A01 T10181018  RH  100%=      5-min Rain = 0
KWE2 140907Z 13011KT M02/M02 A303 RMK A01 T10181018  RH  100%=      5-min Rain = 0
KWE2 140908Z 13011KT M02/M02 A303 RMK A01 T10181018  RH  100%=      5-min Rain = 0
KWE2 140909Z 13010KT M02/M02 A303 RMK A01 T10181018  RH  100%=      5-min Rain = 0
KWE2 140910Z 13011KT M02/M02 A303 RMK A01 T10181019  RH  100%=      5-min Rain = 0
KWE2 140911Z 13012KT M02/M02 A303 RMK A01 T10181018  RH  100%=      5-min Rain = 0
KWE2 140912Z 13013KT M02/M02 A303 RMK A01 T10191019  RH  100%=      5-min Rain = 0
KWE2 140913Z 13012KT M02/M02 A303 RMK A01 T10191019  RH  100%=      5-min Rain = 0
KWE2 140914Z 13011KT M02/M02 A303 RMK A01 T10191019  RH  100%=      5-min Rain = 0
KWE2 140915Z 13012KT M02/M02 A303 RMK A01 T10191019  RH  100%=      5-min Rain = 0
KWE2 140916Z 13011KT M02/M02 A303 RMK A01 T10191019  RH  100%=      5-min Rain = 0
KWE2 140917Z 13011KT M02/M02 A303 RMK A01 T10191019  RH  100%=      5-min Rain = 0
KWE2 140918Z 13012KT M02/M02 A303 RMK A01 T10191019  RH  100%=      5-min Rain = 0
KWE2 140919Z 13013KT M02/M02 A303 RMK A01 T10191019  RH  100%=      5-min Rain = 0
KWE2 140920Z 13013KT M02/M02 A303 RMK A01 T10191019  RH  100%=      5-min Rain = 0
KWE2 140921Z 13013KT M02/M02 A303 RMK A01 T10191019  RH  100%=      5-min Rain = 0
KWE2 140922Z 13013KT M02/M02 A303 RMK A01 T10191019  RH  100%=      5-min Rain = 0
KWE2 140923Z 13012KT M02/M02 A303 RMK A01 T10191019  RH  100%=      5-min Rain = 0
KWE2 140924Z 13012KT M02/M02 A303 RMK A01 T10191019  RH  100%=      5-min Rain = 0
KWE2 140925Z 13013KT M02/M02 A303 RMK A01 T10191019  RH  100%=      5-min Rain = 0
KWE2 140926Z 13013KT M02/M02 A303 RMK A01 T10201020  RH  100%=      5-min Rain = 0
KWE2 140927Z 13012KT M02/M02 A303 RMK A01 T10201020  RH  100%=      5-min Rain = 0
KWE2 140928Z 13013KT M02/M02 A303 RMK A01 T10201020  RH  100%=      5-min Rain = 0
KWE2 140929Z 13011KT M02/M02 A303 RMK A01 T10201020  RH  100%=      5-min Rain = 0
KWE2 140930Z 13010KT M02/M02 A303 RMK A01 T10201020  RH  100%=      5-min Rain = 0
KWE2 140931Z 13011KT M02/M02 A303 RMK A01 T10191019  RH  100%=      5-min Rain = 0
KWE2 140932Z 14012KT M02/M02 A303 RMK A01 T10191019  RH  100%=      5-min Rain = 0
KWE2 140933Z 13011KT M02/M02 A303 RMK A01 T10191019  RH  100%=      5-min Rain = 0
KWE2 140934Z 14012KT M02/M02 A303 RMK A01 T10191019  RH  100%=      5-min Rain = 0
KWE2 140935Z 14012KT M02/M02 A303 RMK A01 T10191019  RH  100%=      5-min Rain = 0
KWE2 140936Z 13011KT M02/M02 A303 RMK A01 T10191019  RH  100%=      5-min Rain = 0
KWE2 140937Z 13010KT M02/M02 A303 RMK A01 T10191019  RH  100%=      5-min Rain = 0
KWE2 140938Z 14011KT M02/M02 A303 RMK A01 T10191019  RH  100%=      5-min Rain = 0
KWE2 140939Z 13011KT M02/M02 A303 RMK A01 T10191019  RH  100%=      5-min Rain = 0
KWE2 140940Z 14011KT M02/M02 A303 RMK A01 T10191019  RH  100%=      5-min Rain = 0
KWE2 140941Z 14011KT M02/M02 A303 RMK A01 T10191019  RH  100%=      5-min Rain = 0
KWE2 140942Z 13011KT M02/M02 A303 RMK A01 T10191019  RH  100%=      5-min Rain = 0
KWE2 140943Z 12009KT M02/M02 A303 RMK A01 T10191019  RH  100%=      5-min Rain = 0
KWE2 140944Z 13010KT M02/M02 A303 RMK A01 T10191019  RH  100%=      5-min Rain = 0
KWE2 140945Z 13012KT M02/M02 A303 RMK A01 T10191019  RH  100%=      5-min Rain = 0
KWE2 140946Z 13011KT M02/M02 A303 RMK A01 T10191019  RH  100%=      5-min Rain = 0
KWE2 140947Z 13011KT M02/M02 A303 RMK A01 T10191019  RH  100%=      5-min Rain = 0
KWE2 140948Z 13010KT M02/M02 A303 RMK A01 T10191019  RH  100%=      5-min Rain = 0
KWE2 140949Z 14009KT M02/M02 A303 RMK A01 T10191019  RH  100%=      5-min Rain = 0
KWE2 140950Z 13012KT M02/M02 A303 RMK A01 T10191019  RH  100%=      5-min Rain = 0
KWE2 140951Z 13012KT M02/M02 A303 RMK A01 T10191019  RH  100%=      5-min Rain = 0
KWE2 140952Z 13011KT M02/M02 A303 RMK A01 T10191019  RH  100%=      5-min Rain = 0
KWE2 140953Z 13009KT M02/M02 A303 RMK A01 T10191019  RH  100%=      5-min Rain = 0
KWE2 140954Z 13008KT M02/M02 A303 RMK A01 T10191019  RH  100%=      5-min Rain = 0
KWE2 140955Z 13010KT M02/M02 A303 RMK A01 T10191019  RH  100%=      5-min Rain = 0
KWE2 140956Z 14010KT M02/M02 A303 RMK A01 T10191019  RH  100%=      5-min Rain = 0
KWE2 140957Z 14010KT M02/M02 A303 RMK A01 T10191019  RH  100%=      5-min Rain = 0
KWE2 140958Z 13010KT M02/M02 A303 RMK A01 T10191019  RH  100%=      5-min Rain = 0
KWE2 140959Z 14009KT M02/M02 A303 RMK A01 T10191019  RH  100%=      5-min Rain = 0
KWE2 141000Z 14010KT M02/M02 A303 RMK A01 T10191019  RH  100%=      5-min Rain = 0
KWE2 141001Z 14010KT M02/M02 A303 RMK A01 T10191019  RH  100%=      5-min Rain = 0
KWE2 141002Z 14009KT M02/M02 A303 RMK A01 T10191019  RH  100%=      5-min Rain = 0
KWE2 141003Z 13012KT M02/M02 A303 RMK A01 T10181018  RH  100%=      5-min Rain = 0
KWE2 141004Z 13011KT M02/M02 A303 RMK A01 T10181019  RH  100%=      5-min Rain = 0
KWE2 141005Z 13011KT M02/M02 A303 RMK A01 T10181019  RH  100%=      5-min Rain = 0
KWE2 141006Z 14011KT M02/M02 A303 RMK A01 T10181018  RH  100%=      5-min Rain = 0
KWE2 141007Z 14010KT M02/M02 A303 RMK A01 T10191019  RH  100%=      5-min Rain = 0
KWE2 141008Z 14009KT M02/M02 A303 RMK A01 T10181018  RH  100%=      5-min Rain = 0
KWE2 141009Z 13008KT M02/M02 A303 RMK A01 T10181018  RH  100%=      5-min Rain = 0
KWE2 141010Z 12010KT M02/M02 A303 RMK A01 T10181018  RH  100%=      5-min Rain = 0
KWE2 141011Z 13011KT M02/M02 A303 RMK A01 T10181018  RH  100%=      5-min Rain = 0
KWE2 141012Z 14011KT M02/M02 A303 RMK A01 T10181018  RH  100%=      5-min Rain = 0
KWE2 141013Z 13011KT M02/M02 A303 RMK A01 T10191019  RH  100%=      5-min Rain = 0
KWE2 141014Z 13011KT M02/M02 A303 RMK A01 T10191019  RH  100%=      5-min Rain = 0
KWE2 141015Z 13010KT M02/M02 A303 RMK A01 T10191019  RH  100%=      5-min Rain = 0
KWE2 141016Z 13010KT M02/M02 A303 RMK A01 T10181018  RH  100%=      5-min Rain = 0
KWE2 141017Z 13009KT M02/M02 A303 RMK A01 T10181018  RH  100%=      5-min Rain = 0
KWE2 141018Z 13008KT M02/M02 A303 RMK A01 T10181018  RH  100%=      5-min Rain = 0
KWE2 141019Z 12009KT M02/M02 A303 RMK A01 T10181018  RH  100%=      5-min Rain = 0
KWE2 141020Z 13010KT M02/M02 A303 RMK A01 T10181018  RH  100%=      5-min Rain = 0
KWE2 141021Z 13010KT M02/M02 A303 RMK A01 T10191019  RH  100%=      5-min Rain = 0
KWE2 141022Z 14010KT M02/M02 A303 RMK A01 T10191019  RH  100%=      5-min Rain = 0
KWE2 141023Z 13009KT M02/M02 A303 RMK A01 T10191019  RH  100%=      5-min Rain = 0
KWE2 141024Z 13010KT M02/M02 A303 RMK A01 T10191019  RH  100%=      5-min Rain = 0
KWE2 141025Z 13010KT M02/M02 A303 RMK A01 T10181018  RH  100%=      5-min Rain = 0
KWE2 141026Z 14010KT M02/M02 A303 RMK A01 T10181018  RH  100%=      5-min Rain = 0
KWE2 141027Z 14010KT M02/M02 A303 RMK A01 T10191019  RH  100%=      5-min Rain = 0
KWE2 141028Z 14011KT M02/M02 A303 RMK A01 T10181018  RH  100%=      5-min Rain = 0
KWE2 141029Z 13011KT M02/M02 A303 RMK A01 T10181018  RH  100%=      5-min Rain = 0
KWE2 141030Z 14010KT M02/M02 A303 RMK A01 T10181018  RH  100%=      5-min Rain = 0
KWE2 141031Z 14010KT M02/M02 A303 RMK A01 T10191019  RH  100%=      5-min Rain = 0
KWE2 141032Z 14011KT M02/M02 A303 RMK A01 T10181018  RH  100%=      5-min Rain = 0
KWE2 141033Z 14010KT M02/M02 A303 RMK A01 T10181018  RH  100%=      5-min Rain = 0
KWE2 141034Z 13011KT M02/M02 A303 RMK A01 T10181018  RH  100%=      5-min Rain = 0
KWE2 141035Z 13012KT M02/M02 A303 RMK A01 T10181018  RH  100%=      5-min Rain = 0
KWE2 141036Z 13012KT M02/M02 A303 RMK A01 T10181018  RH  100%=      5-min Rain = 0
KWE2 141037Z 14011KT M02/M02 A3029 RMK A01 T10181018  RH  100%=      5-min Rain = 0
KWE2 141038Z 13009KT M02/M02 A3029 RMK A01 T10181018  RH  100%=      5-min Rain = 0
KWE2 141039Z 13009KT M02/M02 A3029 RMK A01 T10181018  RH  100%=      5-min Rain = 0
KWE2 141040Z 14011KT M02/M02 A3029 RMK A01 T10181018  RH  100%=      5-min Rain = 0
KWE2 141041Z 14011KT M02/M02 A3029 RMK A01 T10171017  RH  100%=      5-min Rain = 0
KWE2 141042Z 13011KT M02/M02 A3029 RMK A01 T10181018  RH  100%=      5-min Rain = 0
KWE2 141043Z 13009KT M02/M02 A3029 RMK A01 T10181018  RH  100%=      5-min Rain = 0
KWE2 141044Z 13009KT M02/M02 A3029 RMK A01 T10181018  RH  100%=      5-min Rain = 0
KWE2 141045Z 13010KT M02/M02 A3029 RMK A01 T10171018  RH  100%=      5-min Rain = 0
KWE2 141046Z 14009KT M02/M02 A3029 RMK A01 T10181018  RH  100%=      5-min Rain = 0
KWE2 141047Z 13009KT M02/M02 A3029 RMK A01 T10171017  RH  100%=      5-min Rain = 0
KWE2 141048Z 13010KT M02/M02 A3029 RMK A01 T10171017  RH  100%=      5-min Rain = 0
KWE2 141049Z 13010KT M02/M02 A3029 RMK A01 T10171017  RH  100%=      5-min Rain = 0
KWE2 141050Z 14011KT M02/M02 A3029 RMK A01 T10171017  RH  100%=      5-min Rain = 0
KWE2 141051Z 14011KT M02/M02 A3029 RMK A01 T10181018  RH  100%=      5-min Rain = 0
KWE2 141052Z 13011KT M02/M02 A3029 RMK A01 T10181018  RH  100%=      5-min Rain = 0
KWE2 141053Z 14012KT M02/M02 A3029 RMK A01 T10181018  RH  100%=      5-min Rain = 0
KWE2 141054Z 14011KT M02/M02 A3029 RMK A01 T10181018  RH  100%=      5-min Rain = 0
KWE2 141055Z 13011KT M02/M02 A3029 RMK A01 T10181018  RH  100%=      5-min Rain = 0
KWE2 141056Z 14011KT M02/M02 A3029 RMK A01 T10181018  RH  100%=      5-min Rain = 0
KWE2 141057Z 14010KT M02/M02 A3029 RMK A01 T10181018  RH  100%=      5-min Rain = 0
KWE2 141058Z 13011KT M02/M02 A3029 RMK A01 T10181018  RH  100%=      5-min Rain = 0
KWE2 141059Z 14010KT M02/M02 A3029 RMK A01 T10181018  RH  100%=      5-min Rain = 0
KWE2 141100Z 14009KT M02/M02 A3029 RMK A01 T10181018  RH  100%=      5-min Rain = 0
KWE2 141101Z 13010KT M02/M02 A3029 RMK A01 T10181018  RH  100%=      5-min Rain = 0
KWE2 141102Z 13011KT M02/M02 A3029 RMK A01 T10181018  RH  100%=      5-min Rain = 0
KWE2 141103Z 14010KT M02/M02 A3029 RMK A01 T10181018  RH  100%=      5-min Rain = 0
KWE2 141104Z 14010KT M02/M02 A3029 RMK A01 T10171017  RH  100%=      5-min Rain = 0
KWE2 141105Z 13011KT M02/M02 A3029 RMK A01 T10171017  RH  100%=      5-min Rain = 0
KWE2 141106Z 13010KT M02/M02 A3029 RMK A01 T10171017  RH  100%=      5-min Rain = 0
KWE2 141107Z 13011KT M02/M02 A3029 RMK A01 T10171017  RH  100%=      5-min Rain = 0
KWE2 141108Z 14010KT M02/M02 A3029 RMK A01 T10171017  RH  100%=      5-min Rain = 0
KWE2 141109Z 13011KT M02/M02 A3029 RMK A01 T10171017  RH  100%=      5-min Rain = 0
KWE2 141110Z 14011KT M02/M02 A3029 RMK A01 T10171017  RH  100%=      5-min Rain = 0
KWE2 141111Z 13011KT M02/M02 A3029 RMK A01 T10171017  RH  100%=      5-min Rain = 0
KWE2 141112Z 14010KT M02/M02 A3029 RMK A01 T10171017  RH  100%=      5-min Rain = 0
KWE2 141113Z 14012KT M02/M02 A3029 RMK A01 T10171018  RH  100%=      5-min Rain = 0
KWE2 141114Z 13010KT M02/M02 A3029 RMK A01 T10171017  RH  100%=      5-min Rain = 0
KWE2 141115Z 14011KT M02/M02 A3029 RMK A01 T10171017  RH  100%=      5-min Rain = 0
KWE2 141116Z 14010KT M02/M02 A3029 RMK A01 T10171017  RH  100%=      5-min Rain = 0
KWE2 141117Z 14010KT M02/M02 A3029 RMK A01 T10171017  RH  100%=      5-min Rain = 0
KWE2 141118Z 13011KT M02/M02 A3029 RMK A01 T10171017  RH  100%=      5-min Rain = 0
KWE2 141119Z 13011KT M02/M02 A3029 RMK A01 T10171017  RH  100%=      5-min Rain = 0
KWE2 141120Z 13010KT M02/M02 A3029 RMK A01 T10171017  RH  100%=      5-min Rain = 0
KWE2 141121Z 14011KT M02/M02 A3029 RMK A01 T10171017  RH  100%=      5-min Rain = 0
KWE2 141122Z 14012KT M02/M02 A3029 RMK A01 T10171017  RH  100%=      5-min Rain = 0
KWE2 141123Z 13011KT M02/M02 A3029 RMK A01 T10171017  RH  100%=      5-min Rain = 0
KWE2 141124Z 13012KT M02/M02 A303 RMK A01 T10171017  RH  100%=      5-min Rain = 0
KWE2 141125Z 14011KT M02/M02 A303 RMK A01 T10171017  RH  100%=      5-min Rain = 0
KWE2 141126Z 13011KT M02/M02 A303 RMK A01 T10171017  RH  100%=      5-min Rain = 0
KWE2 141127Z 14012KT M02/M02 A303 RMK A01 T10171017  RH  100%=      5-min Rain = 0
KWE2 141128Z 14011KT M02/M02 A303 RMK A01 T10171017  RH  100%=      5-min Rain = 0
KWE2 141129Z 14012KT M02/M02 A303 RMK A01 T10171017  RH  100%=      5-min Rain = 0
KWE2 141130Z 14011KT M02/M02 A303 RMK A01 T10171017  RH  100%=      5-min Rain = 0
KWE2 141131Z 14011KT M02/M02 A303 RMK A01 T10171017  RH  100%=      5-min Rain = 0
KWE2 141132Z 14011KT M02/M02 A303 RMK A01 T10171017  RH  100%=      5-min Rain = 0
KWE2 141133Z 13012KT M02/M02 A303 RMK A01 T10171017  RH  100%=      5-min Rain = 0
KWE2 141134Z 14012KT M02/M02 A303 RMK A01 T10171017  RH  100%=      5-min Rain = 0
KWE2 141135Z 14010KT M02/M02 A303 RMK A01 T10171017  RH  100%=      5-min Rain = 0
KWE2 141136Z 14011KT M02/M02 A303 RMK A01 T10171017  RH  100%=      5-min Rain = 0
KWE2 141137Z 14010KT M02/M02 A303 RMK A01 T10171017  RH  100%=      5-min Rain = 0
KWE2 141138Z 14011KT M02/M02 A303 RMK A01 T10171017  RH  100%=      5-min Rain = 0
KWE2 141139Z 14010KT M02/M02 A303 RMK A01 T10171017  RH  100%=      5-min Rain = 0
KWE2 141140Z 14012KT M02/M02 A303 RMK A01 T10171017  RH  100%=      5-min Rain = 0
KWE2 141141Z 14012KT M02/M02 A303 RMK A01 T10171017  RH  100%=      5-min Rain = 0
KWE2 141142Z 14012KT M02/M02 A303 RMK A01 T10171017  RH  100%=      5-min Rain = 0
KWE2 141143Z 14010KT M02/M02 A303 RMK A01 T10181018  RH  100%=      5-min Rain = 0
KWE2 141144Z 14008KT M02/M02 A303 RMK A01 T10171017  RH  100%=      5-min Rain = 0
KWE2 141145Z 14010KT M02/M02 A303 RMK A01 T10171017  RH  100%=      5-min Rain = 0
KWE2 141146Z 14011KT M02/M02 A303 RMK A01 T10171017  RH  100%=      5-min Rain = 0
KWE2 141147Z 14011KT M02/M02 A303 RMK A01 T10171017  RH  100%=      5-min Rain = 0
KWE2 141148Z 13010KT M02/M02 A303 RMK A01 T10171017  RH  100%=      5-min Rain = 0
KWE2 141149Z 14009KT M02/M02 A303 RMK A01 T10171017  RH  100%=      5-min Rain = 0
KWE2 141150Z 14011KT M02/M02 A303 RMK A01 T10171017  RH  100%=      5-min Rain = 0
KWE2 141151Z 14009KT M02/M02 A303 RMK A01 T10171017  RH  100%=      5-min Rain = 0
KWE2 141152Z 14009KT M02/M02 A303 RMK A01 T10171017  RH  100%=      5-min Rain = 0
KWE2 141153Z 14009KT M02/M02 A303 RMK A01 T10171017  RH  100%=      5-min Rain = 0
KWE2 141154Z 14010KT M02/M02 A303 RMK A01 T10171017  RH  100%=      5-min Rain = 0
KWE2 141155Z 14010KT M02/M02 A303 RMK A01 T10171017  RH  100%=      5-min Rain = 0
KWE2 141156Z 14011KT M02/M02 A303 RMK A01 T10171017  RH  100%=      5-min Rain = 0
KWE2 141157Z 14010KT M02/M02 A303 RMK A01 T10171017  RH  100%=      5-min Rain = 0
KWE2 141158Z 15011KT M02/M02 A303 RMK A01 T10171017  RH  100%=      5-min Rain = 0
KWE2 141159Z 14012KT M02/M02 A303 RMK A01 T10171017  RH  100%=      5-min Rain = 0
KWE2 141200Z 14011KT M02/M02 A303 RMK A01 T10171017  RH  100%=      5-min Rain = 0
KWE2 141201Z 14011KT M02/M02 A303 RMK A01 T10171017  RH  100%=      5-min Rain = 0
KWE2 141202Z 14010KT M02/M02 A303 RMK A01 T10171017  RH  100%=      5-min Rain = 0
KWE2 141203Z 15009KT M02/M02 A303 RMK A01 T10171017  RH  100%=      5-min Rain = 0
KWE2 141204Z 13009KT M02/M02 A303 RMK A01 T10171017  RH  100%=      5-min Rain = 0
KWE2 141205Z 14009KT M02/M02 A303 RMK A01 T10181018  RH  100%=      5-min Rain = 0
KWE2 141206Z 15010KT M02/M02 A303 RMK A01 T10171017  RH  100%=      5-min Rain = 0
KWE2 141207Z 15011KT M02/M02 A303 RMK A01 T10171017  RH  100%=      5-min Rain = 0
KWE2 141208Z 15012KT M02/M02 A303 RMK A01 T10181018  RH  100%=      5-min Rain = 0
KWE2 141209Z 15012KT M02/M02 A303 RMK A01 T10181018  RH  100%=      5-min Rain = 0
KWE2 141210Z 15011KT M02/M02 A303 RMK A01 T10181018  RH  100%=      5-min Rain = 0
KWE2 141211Z 14010KT M02/M02 A303 RMK A01 T10181018  RH  100%=      5-min Rain = 0
KWE2 141212Z 14011KT M02/M02 A303 RMK A01 T10181018  RH  100%=      5-min Rain = 0
KWE2 141213Z 14012KT M02/M02 A303 RMK A01 T10181018  RH  100%=      5-min Rain = 0
KWE2 141214Z 14011KT M02/M02 A303 RMK A01 T10181018  RH  100%=      5-min Rain = 0
KWE2 141215Z 14010KT M02/M02 A303 RMK A01 T10181018  RH  100%=      5-min Rain = 0
KWE2 141216Z 15010KT M02/M02 A303 RMK A01 T10181018  RH  100%=      5-min Rain = 0
KWE2 141217Z 15011KT M02/M02 A303 RMK A01 T10181018  RH  100%=      5-min Rain = 0
KWE2 141218Z 14012KT M02/M02 A303 RMK A01 T10181018  RH  100%=      5-min Rain = 0
KWE2 141219Z 14011KT M02/M02 A303 RMK A01 T10191019  RH  100%=      5-min Rain = 0
KWE2 141220Z 14010KT M02/M02 A303 RMK A01 T10191019  RH  100%=      5-min Rain = 0
KWE2 141221Z 14011KT M02/M02 A303 RMK A01 T10191019  RH  100%=      5-min Rain = 0
KWE2 141222Z 14010KT M02/M02 A3031 RMK A01 T10191019  RH  100%=      5-min Rain = 0
KWE2 141223Z 14010KT M02/M02 A3031 RMK A01 T10191019  RH  100%=      5-min Rain = 0
KWE2 141224Z 13009KT M02/M02 A3031 RMK A01 T10191019  RH  100%=      5-min Rain = 0
KWE2 141225Z 13011KT M02/M02 A3031 RMK A01 T10181019  RH  100%=      5-min Rain = 0
KWE2 141226Z 13011KT M02/M02 A303 RMK A01 T10181018  RH  100%=      5-min Rain = 0
KWE2 141227Z 14011KT M02/M02 A303 RMK A01 T10191019  RH  100%=      5-min Rain = 0
KWE2 141228Z 14011KT M02/M02 A303 RMK A01 T10191019  RH  100%=      5-min Rain = 0
KWE2 141229Z 14011KT M02/M02 A3031 RMK A01 T10191019  RH  100%=      5-min Rain = 0
KWE2 141230Z 14011KT M02/M02 A3031 RMK A01 T10191019  RH  100%=      5-min Rain = 0
KWE2 141231Z 14011KT M02/M02 A3031 RMK A01 T10191019  RH  100%=      5-min Rain = 0
KWE2 141232Z 14011KT M02/M02 A3031 RMK A01 T10191019  RH  100%=      5-min Rain = 0
KWE2 141233Z 14010KT M02/M02 A3031 RMK A01 T10191019  RH  100%=      5-min Rain = 0
KWE2 141234Z 14012KT M02/M02 A3031 RMK A01 T10191019  RH  100%=      5-min Rain = 0
KWE2 141235Z 14011KT M02/M02 A3031 RMK A01 T10191019  RH  100%=      5-min Rain = 0
KWE2 141236Z 14012KT M02/M02 A3031 RMK A01 T10191019  RH  100%=      5-min Rain = 0
KWE2 141237Z 15010KT M02/M02 A3031 RMK A01 T10191019  RH  100%=      5-min Rain = 0
KWE2 141238Z 14011KT M02/M02 A3031 RMK A01 T10191019  RH  100%=      5-min Rain = 0
KWE2 141239Z 15011KT M02/M02 A3031 RMK A01 T10191019  RH  100%=      5-min Rain = 0
KWE2 141240Z 15011KT M02/M02 A3031 RMK A01 T10191019  RH  100%=      5-min Rain = 0
KWE2 141241Z 15009KT M02/M02 A3031 RMK A01 T10191019  RH  100%=      5-min Rain = 0
KWE2 141242Z 14009KT M02/M02 A3031 RMK A01 T10191019  RH  100%=      5-min Rain = 0
KWE2 141243Z 14009KT M02/M02 A3031 RMK A01 T10191019  RH  100%=      5-min Rain = 0
KWE2 141244Z 13010KT M02/M02 A3031 RMK A01 T10191019  RH  100%=      5-min Rain = 0
KWE2 141245Z 13010KT M02/M02 A3032 RMK A01 T10191019  RH  100%=      5-min Rain = 0
KWE2 141246Z 13008KT M02/M02 A3032 RMK A01 T10191019  RH  100%=      5-min Rain = 0
KWE2 141247Z 14009KT M02/M02 A3032 RMK A01 T10191019  RH  100%=      5-min Rain = 0
KWE2 141248Z 14010KT M02/M02 A3032 RMK A01 T10191019  RH  100%=      5-min Rain = 0
KWE2 141249Z 14010KT M02/M02 A3032 RMK A01 T10191019  RH  100%=      5-min Rain = 0
KWE2 141250Z 14010KT M02/M02 A3032 RMK A01 T10191019  RH  100%=      5-min Rain = 0
KWE2 141251Z 14009KT M02/M02 A3032 RMK A01 T10191019  RH  100%=      5-min Rain = 0
KWE2 141252Z 13009KT M02/M02 A3032 RMK A01 T10191020  RH  100%=      5-min Rain = 0
KWE2 141253Z 14010KT M02/M02 A3032 RMK A01 T10191019  RH  100%=      5-min Rain = 0
KWE2 141254Z 14010KT M02/M02 A3032 RMK A01 T10191019  RH  100%=      5-min Rain = 0
KWE2 141255Z 15011KT M02/M02 A3032 RMK A01 T10191019  RH  100%=      5-min Rain = 0
KWE2 141256Z 15010KT M02/M02 A3032 RMK A01 T10191019  RH  100%=      5-min Rain = 0
KWE2 141257Z 15009KT M02/M02 A3032 RMK A01 T10201020  RH  100%=      5-min Rain = 0
KWE2 141258Z 15009KT M02/M02 A3032 RMK A01 T10201020  RH  100%=      5-min Rain = 0
KWE2 141259Z 14009KT M02/M02 A3032 RMK A01 T10201020  RH  100%=      5-min Rain = 0
KWE2 141300Z 14010KT M02/M02 A3032 RMK A01 T10201020  RH  100%=      5-min Rain = 0
KWE2 141301Z 14010KT M02/M02 A3032 RMK A01 T10201020  RH  100%=      5-min Rain = 0
KWE2 141302Z 14010KT M02/M02 A3032 RMK A01 T10201020  RH  100%=      5-min Rain = 0
KWE2 141303Z 15010KT M02/M02 A3032 RMK A01 T10201020  RH  100%=      5-min Rain = 0
KWE2 141304Z 15010KT M02/M02 A3032 RMK A01 T10201020  RH  100%=      5-min Rain = 0
KWE2 141305Z 15011KT M02/M02 A3032 RMK A01 T10201020  RH  100%=      5-min Rain = 0
KWE2 141306Z 14009KT M02/M02 A3032 RMK A01 T10201020  RH  100%=      5-min Rain = 0
KWE2 141307Z 14010KT M02/M02 A3032 RMK A01 T10201020  RH  100%=      5-min Rain = 0
KWE2 141308Z 15011KT M02/M02 A3032 RMK A01 T10201020  RH  100%=      5-min Rain = 0
KWE2 141309Z 15010KT M02/M02 A3032 RMK A01 T10201020  RH  100%=      5-min Rain = 0
KWE2 141310Z 15010KT M02/M02 A3032 RMK A01 T10201020  RH  100%=      5-min Rain = 0
KWE2 141311Z 15010KT M02/M02 A3032 RMK A01 T10201020  RH  100%=      5-min Rain = 0
KWE2 141312Z 15010KT M02/M02 A3032 RMK A01 T10201020  RH  100%=      5-min Rain = 0
KWE2 141313Z 15010KT M02/M02 A3032 RMK A01 T10201020  RH  100%=      5-min Rain = 0
KWE2 141314Z 15010KT M02/M02 A3032 RMK A01 T10201020  RH  100%=      5-min Rain = 0
KWE2 141315Z 15011KT M02/M02 A3032 RMK A01 T10211021  RH  100%=      5-min Rain = 0
KWE2 141316Z 15009KT M02/M02 A3032 RMK A01 T10211021  RH  100%=      5-min Rain = 0
KWE2 141317Z 15010KT M02/M02 A3032 RMK A01 T10211021  RH  100%=      5-min Rain = 0
KWE2 141318Z 14011KT M02/M02 A3032 RMK A01 T10211021  RH  100%=      5-min Rain = 0
KWE2 141319Z 14009KT M02/M02 A3032 RMK A01 T10211021  RH  100%=      5-min Rain = 0
KWE2 141320Z 14009KT M02/M02 A3032 RMK A01 T10211021  RH  100%=      5-min Rain = 0
KWE2 141321Z 14009KT M02/M02 A3032 RMK A01 T10201020  RH  100%=      5-min Rain = 0
KWE2 141322Z 14009KT M02/M02 A3032 RMK A01 T10201020  RH  100%=      5-min Rain = 0
KWE2 141323Z 15009KT M02/M02 A3032 RMK A01 T10201020  RH  100%=      5-min Rain = 0
KWE2 141324Z 14009KT M02/M02 A3032 RMK A01 T10211021  RH  100%=      5-min Rain = 0
KWE2 141325Z 14009KT M02/M02 A3032 RMK A01 T10211021  RH  100%=      5-min Rain = 0
KWE2 141326Z 15009KT M02/M02 A3032 RMK A01 T10211021  RH  100%=      5-min Rain = 0
KWE2 141327Z 14008KT M02/M02 A3032 RMK A01 T10211021  RH  100%=      5-min Rain = 0
KWE2 141328Z 15010KT M02/M02 A3032 RMK A01 T10201020  RH  100%=      5-min Rain = 0
KWE2 141329Z 15009KT M02/M02 A3032 RMK A01 T10201020  RH  100%=      5-min Rain = 0
KWE2 141330Z 15009KT M02/M02 A3032 RMK A01 T10201020  RH  100%=      5-min Rain = 0
KWE2 141331Z 14007KT M02/M02 A3032 RMK A01 T10201020  RH  100%=      5-min Rain = 0
KWE2 141332Z 14008KT M02/M02 A3032 RMK A01 T10201020  RH  100%=      5-min Rain = 0
KWE2 141333Z 14009KT M02/M02 A3032 RMK A01 T10201020  RH  100%=      5-min Rain = 0
KWE2 141334Z 14009KT M02/M02 A3032 RMK A01 T10201020  RH  100%=      5-min Rain = 0
KWE2 141335Z 14011KT M02/M02 A3032 RMK A01 T10201020  RH  100%=      5-min Rain = 0
KWE2 141336Z 13009KT M02/M02 A3032 RMK A01 T10201020  RH  100%=      5-min Rain = 0
KWE2 141337Z 13011KT M02/M02 A3032 RMK A01 T10201020  RH  100%=      5-min Rain = 0
KWE2 141338Z 14010KT M02/M02 A3032 RMK A01 T10211021  RH  100%=      5-min Rain = 0
KWE2 141339Z 14011KT M02/M02 A3032 RMK A01 T10211021  RH  100%=      5-min Rain = 0
KWE2 141340Z 14011KT M02/M02 A3032 RMK A01 T10201020  RH  100%=      5-min Rain = 0
KWE2 141341Z 14009KT M02/M02 A3032 RMK A01 T10211021  RH  100%=      5-min Rain = 0
KWE2 141342Z 14010KT M02/M02 A3032 RMK A01 T10211021  RH  100%=      5-min Rain = 0
KWE2 141343Z 15011KT M02/M02 A3032 RMK A01 T10211021  RH  100%=      5-min Rain = 0
KWE2 141344Z 15010KT M02/M02 A3032 RMK A01 T10211021  RH  100%=      5-min Rain = 0
KWE2 141345Z 14009KT M02/M02 A3032 RMK A01 T10211021  RH  100%=      5-min Rain = 0
KWE2 141346Z 14009KT M02/M02 A3032 RMK A01 T10201020  RH  100%=      5-min Rain = 0
KWE2 141347Z 14009KT M02/M02 A3032 RMK A01 T10201020  RH  100%=      5-min Rain = 0
KWE2 141348Z 14010KT M02/M02 A3032 RMK A01 T10201020  RH  100%=      5-min Rain = 0
KWE2 141349Z 13010KT M02/M02 A3032 RMK A01 T10201020  RH  100%=      5-min Rain = 0
KWE2 141350Z 13011KT M02/M02 A3032 RMK A01 T10201020  RH  100%=      5-min Rain = 0
KWE2 141351Z 13011KT M02/M02 A3032 RMK A01 T10201020  RH  100%=      5-min Rain = 0
KWE2 141352Z 13011KT M02/M02 A3032 RMK A01 T10211021  RH  100%=      5-min Rain = 0
KWE2 141353Z 14010KT M02/M02 A3032 RMK A01 T10211021  RH  100%=      5-min Rain = 0
KWE2 141354Z 13010KT M02/M02 A3032 RMK A01 T10211021  RH  100%=      5-min Rain = 0
KWE2 141355Z 14010KT M02/M02 A3031 RMK A01 T10211021  RH  100%=      5-min Rain = 0
KWE2 141356Z 14009KT M02/M02 A3031 RMK A01 T10211021  RH  100%=      5-min Rain = 0
KWE2 141357Z 14010KT M02/M02 A3031 RMK A01 T10211021  RH  100%=      5-min Rain = 0
KWE2 141358Z 14011KT M02/M02 A3031 RMK A01 T10211021  RH  100%=      5-min Rain = 0
KWE2 141359Z 14010KT M02/M02 A3032 RMK A01 T10211021  RH  100%=      5-min Rain = 0
KWE2 141400Z 13009KT M02/M02 A3032 RMK A01 T10201020  RH  100%=      5-min Rain = 0
KWE2 141401Z 13009KT M02/M02 A3032 RMK A01 T10201020  RH  100%=      5-min Rain = 0
KWE2 141402Z 13010KT M02/M02 A3032 RMK A01 T10201020  RH  100%=      5-min Rain = 0
KWE2 141403Z 13010KT M02/M02 A3032 RMK A01 T10201020  RH  100%=      5-min Rain = 0
KWE2 141404Z 13009KT M02/M02 A3032 RMK A01 T10201020  RH  100%=      5-min Rain = 0
KWE2 141405Z 13010KT M02/M02 A3032 RMK A01 T10201020  RH  100%=      5-min Rain = 0
KWE2 141406Z 13009KT M02/M02 A3032 RMK A01 T10211021  RH  100%=      5-min Rain = 0
KWE2 141407Z 13010KT M02/M02 A3032 RMK A01 T10211021  RH  100%=      5-min Rain = 0
KWE2 141408Z 13010KT M02/M02 A3032 RMK A01 T10211021  RH  100%=      5-min Rain = 0
KWE2 141409Z 13011KT M02/M02 A3032 RMK A01 T10211021  RH  100%=      5-min Rain = 0
KWE2 141410Z 13010KT M02/M02 A3032 RMK A01 T10211021  RH  100%=      5-min Rain = 0
KWE2 141411Z 14010KT M02/M02 A3032 RMK A01 T10211021  RH  100%=      5-min Rain = 0
KWE2 141412Z 13009KT M02/M02 A3032 RMK A01 T10211021  RH  100%=      5-min Rain = 0
KWE2 141413Z 13011KT M02/M02 A3032 RMK A01 T10201020  RH  100%=      5-min Rain = 0
KWE2 141414Z 13009KT M02/M02 A3032 RMK A01 T10201020  RH  100%=      5-min Rain = 0
KWE2 141415Z 13009KT M02/M02 A3032 RMK A01 T10201020  RH  100%=      5-min Rain = 0
KWE2 141416Z 14009KT M02/M02 A3032 RMK A01 T10201020  RH  100%=      5-min Rain = 0
KWE2 141417Z 14009KT M02/M02 A3032 RMK A01 T10201020  RH  100%=      5-min Rain = 0
KWE2 141418Z 13009KT M02/M02 A3032 RMK A01 T10201020  RH  100%=      5-min Rain = 0
KWE2 141419Z 14009KT M02/M02 A3032 RMK A01 T10201020  RH  100%=      5-min Rain = 0
KWE2 141420Z 13009KT M02/M02 A3032 RMK A01 T10201020  RH  100%=      5-min Rain = 0
KWE2 141421Z 13009KT M02/M02 A3032 RMK A01 T10201020  RH  100%=      5-min Rain = 0
KWE2 141422Z 13010KT M02/M02 A3032 RMK A01 T10201020  RH  100%=      5-min Rain = 0
KWE2 141423Z 13007KT M02/M02 A3032 RMK A01 T10201020  RH  100%=      5-min Rain = 0
KWE2 141424Z 14010KT M02/M02 A3032 RMK A01 T10201020  RH  100%=      5-min Rain = 0
KWE2 141425Z 13010KT M02/M02 A3032 RMK A01 T10191019  RH  100%=      5-min Rain = 0
KWE2 141426Z 14010KT M02/M02 A3032 RMK A01 T10201020  RH  100%=      5-min Rain = 0
KWE2 141427Z 14010KT M02/M02 A3032 RMK A01 T10201020  RH  100%=      5-min Rain = 0
KWE2 141428Z 14010KT M02/M02 A3032 RMK A01 T10201020  RH  100%=      5-min Rain = 0
KWE2 141429Z 15010KT M02/M02 A3032 RMK A01 T10201020  RH  100%=      5-min Rain = 0
KWE2 141430Z 14010KT M02/M02 A3032 RMK A01 T10201020  RH  100%=      5-min Rain = 0
KWE2 141431Z 14010KT M02/M02 A3032 RMK A01 T10201020  RH  100%=      5-min Rain = 0
KWE2 141432Z 14009KT M02/M02 A3032 RMK A01 T10201020  RH  100%=      5-min Rain = 0
KWE2 141433Z 14010KT M02/M02 A3032 RMK A01 T10201020  RH  100%=      5-min Rain = 0
KWE2 141434Z 15010KT M02/M02 A3032 RMK A01 T10201020  RH  100%=      5-min Rain = 0
KWE2 141435Z 14009KT M02/M02 A3032 RMK A01 T10201020  RH  100%=      5-min Rain = 0
KWE2 141436Z 14010KT M02/M02 A3032 RMK A01 T10191019  RH  100%=      5-min Rain = 0
KWE2 141437Z 13010KT M02/M02 A3032 RMK A01 T10191019  RH  100%=      5-min Rain = 0
KWE2 141438Z 14009KT M02/M02 A3032 RMK A01 T10201020  RH  100%=      5-min Rain = 0
KWE2 141439Z 14010KT M02/M02 A3032 RMK A01 T10201020  RH  100%=      5-min Rain = 0
KWE2 141440Z 14010KT M02/M02 A3032 RMK A01 T10201020  RH  100%=      5-min Rain = 0
KWE2 141441Z 13008KT M02/M02 A3032 RMK A01 T10191019  RH  100%=      5-min Rain = 0
KWE2 141442Z 13009KT M02/M02 A3032 RMK A01 T10191019  RH  100%=      5-min Rain = 0
KWE2 141443Z 13009KT M02/M02 A3032 RMK A01 T10191019  RH  100%=      5-min Rain = 0
KWE2 141444Z 13008KT M02/M02 A3032 RMK A01 T10181019  RH  100%=      5-min Rain = 0
KWE2 141445Z 14010KT M02/M02 A3032 RMK A01 T10181018  RH  100%=      5-min Rain = 0
KWE2 141446Z 14008KT M02/M02 A3032 RMK A01 T10181018  RH  100%=      5-min Rain = 0
KWE2 141447Z 14009KT M02/M02 A3032 RMK A01 T10181018  RH  100%=      5-min Rain = 0
KWE2 141448Z 14008KT M02/M02 A3032 RMK A01 T10181018  RH  100%=      5-min Rain = 0
KWE2 141449Z 13008KT M02/M02 A3032 RMK A01 T10181018  RH  100%=      5-min Rain = 0
KWE2 141450Z 13010KT M02/M02 A3032 RMK A01 T10181018  RH  100%=      5-min Rain = 0
KWE2 141451Z 13009KT M02/M02 A3032 RMK A01 T10181018  RH  100%=      5-min Rain = 0
KWE2 141452Z 14009KT M02/M02 A3032 RMK A01 T10181018  RH  100%=      5-min Rain = 0
KWE2 141453Z 13008KT M02/M02 A3032 RMK A01 T10181018  RH  100%=      5-min Rain = 0
KWE2 141454Z 13009KT M02/M02 A3032 RMK A01 T10181018  RH  100%=      5-min Rain = 0
KWE2 141455Z 13009KT M02/M02 A3032 RMK A01 T10181018  RH  100%=      5-min Rain = 0
KWE2 141456Z 13009KT M02/M02 A3032 RMK A01 T10181018  RH  100%=      5-min Rain = 0
KWE2 141457Z 15009KT M02/M02 A3032 RMK A01 T10181018  RH  100%=      5-min Rain = 0
KWE2 141458Z 15009KT M02/M02 A3032 RMK A01 T10181018  RH  100%=      5-min Rain = 0
KWE2 141459Z 14009KT M02/M02 A3032 RMK A01 T10171017  RH  100%=      5-min Rain = 0
KWE2 141500Z 13009KT M02/M02 A3032 RMK A01 T10171017  RH  100%=      5-min Rain = 0
KWE2 141501Z 14009KT M02/M02 A3032 RMK A01 T10171017  RH  100%=      5-min Rain = 0
KWE2 141502Z 14009KT M02/M02 A3032 RMK A01 T10171017  RH  100%=      5-min Rain = 0
KWE2 141503Z 13008KT M02/M02 A3032 RMK A01 T10171017  RH  100%=      5-min Rain = 0
KWE2 141504Z 13009KT M02/M02 A3032 RMK A01 T10171017  RH  100%=      5-min Rain = 0
KWE2 141505Z 13009KT M02/M02 A3032 RMK A01 T10171017  RH  100%=      5-min Rain = 0
KWE2 141506Z 13007KT M02/M02 A3032 RMK A01 T10171017  RH  100%=      5-min Rain = 0
KWE2 141507Z 12008KT M02/M02 A3032 RMK A01 T10181018  RH  100%=      5-min Rain = 0
KWE2 141508Z 12009KT M02/M02 A3032 RMK A01 T10171017  RH  100%=      5-min Rain = 0
KWE2 141509Z 13009KT M02/M02 A3032 RMK A01 T10171017  RH  100%=      5-min Rain = 0
KWE2 141510Z 13008KT M02/M02 A3032 RMK A01 T10171017  RH  100%=      5-min Rain = 0
KWE2 141511Z 13007KT M02/M02 A3032 RMK A01 T10171017  RH  100%=      5-min Rain = 0
KWE2 141512Z 14008KT M02/M02 A3032 RMK A01 T10161016  RH  100%=      5-min Rain = 0
KWE2 141513Z 14008KT M02/M02 A3032 RMK A01 T10171017  RH  100%=      5-min Rain = 0
KWE2 141514Z 13007KT M02/M02 A3032 RMK A01 T10171017  RH  100%=      5-min Rain = 0
KWE2 141515Z 13008KT M02/M02 A3032 RMK A01 T10171017  RH  100%=      5-min Rain = 0
KWE2 141516Z 12008KT M02/M02 A3032 RMK A01 T10171017  RH  100%=      5-min Rain = 0
KWE2 141517Z 12008KT M02/M02 A3032 RMK A01 T10171018  RH  100%=      5-min Rain = 0
KWE2 141518Z 12008KT M02/M02 A3032 RMK A01 T10171017  RH  100%=      5-min Rain = 0
KWE2 141519Z 13009KT M02/M02 A3032 RMK A01 T10171017  RH  100%=      5-min Rain = 0
KWE2 141520Z 13009KT M02/M02 A3032 RMK A01 T10171017  RH  100%=      5-min Rain = 0
KWE2 141521Z 13008KT M02/M02 A3032 RMK A01 T10171017  RH  100%=      5-min Rain = 0
KWE2 141522Z 14008KT M02/M02 A3032 RMK A01 T10181018  RH  100%=      5-min Rain = 0
KWE2 141523Z 14009KT M02/M02 A3032 RMK A01 T10171017  RH  100%=      5-min Rain = 0
KWE2 141524Z 14009KT M02/M02 A3032 RMK A01 T10161016  RH  100%=      5-min Rain = 0
KWE2 141525Z 14008KT M02/M02 A3032 RMK A01 T10171017  RH  100%=      5-min Rain = 0
KWE2 141526Z 13009KT M02/M02 A3032 RMK A01 T10171017  RH  100%=      5-min Rain = 0
KWE2 141527Z 13009KT M02/M02 A3032 RMK A01 T10171017  RH  100%=      5-min Rain = 0
KWE2 141528Z 13008KT M02/M02 A3032 RMK A01 T10171017  RH  100%=      5-min Rain = 0
KWE2 141529Z 13008KT M02/M02 A3032 RMK A01 T10161016  RH  100%=      5-min Rain = 0
KWE2 141530Z 13007KT M02/M02 A3032 RMK A01 T10161016  RH  100%=      5-min Rain = 0
KWE2 141531Z 14008KT M02/M02 A3032 RMK A01 T10161016  RH  100%=      5-min Rain = 0
KWE2 141532Z 14008KT M02/M02 A3032 RMK A01 T10161016  RH  100%=      5-min Rain = 0
KWE2 141533Z 14008KT M02/M02 A3032 RMK A01 T10151015  RH  100%=      5-min Rain = 0
KWE2 141534Z 13007KT M02/M02 A3032 RMK A01 T10161016  RH  100%=      5-min Rain = 0
KWE2 141535Z 12008KT M02/M02 A3032 RMK A01 T10161016  RH  100%=      5-min Rain = 0
KWE2 141536Z 13008KT M02/M02 A3032 RMK A01 T10151015  RH  100%=      5-min Rain = 0
KWE2 141537Z 13008KT M01/M01 A3032 RMK A01 T10141014  RH  100%=      5-min Rain = 0
KWE2 141538Z 14008KT M01/M01 A3032 RMK A01 T10141014  RH  100%=      5-min Rain = 0
KWE2 141539Z 14008KT M01/M01 A3032 RMK A01 T10141014  RH  100%=      5-min Rain = 0
KWE2 141540Z 14009KT M01/M01 A3032 RMK A01 T10141014  RH  100%=      5-min Rain = 0
KWE2 141541Z 13007KT M01/M01 A3032 RMK A01 T10141014  RH  100%=      5-min Rain = 0
KWE2 141542Z 14006KT M01/M01 A3032 RMK A01 T10141014  RH  100%=      5-min Rain = 0
KWE2 141543Z 13006KT M01/M01 A3032 RMK A01 T10131013  RH  100%=      5-min Rain = 0
KWE2 141544Z 13007KT M01/M01 A3032 RMK A01 T10131013  RH  100%=      5-min Rain = 0
KWE2 141545Z 13008KT M01/M01 A3033 RMK A01 T10131013  RH  100%=      5-min Rain = 0
KWE2 141546Z 13007KT M01/M01 A3033 RMK A01 T10131013  RH  100%=      5-min Rain = 0
KWE2 141547Z 12007KT M01/M01 A3033 RMK A01 T10141014  RH  100%=      5-min Rain = 0
KWE2 141548Z 13006KT M01/M01 A3033 RMK A01 T10141014  RH  100%=      5-min Rain = 0
KWE2 141549Z 14008KT M01/M01 A3033 RMK A01 T10131013  RH  100%=      5-min Rain = 0
KWE2 141550Z 14008KT M01/M01 A3032 RMK A01 T10141014  RH  100%=      5-min Rain = 0
KWE2 141551Z 14007KT M01/M01 A3032 RMK A01 T10141014  RH  100%=      5-min Rain = 0
KWE2 141552Z 13007KT M01/M01 A3032 RMK A01 T10141014  RH  100%=      5-min Rain = 0
KWE2 141553Z 13007KT M01/M01 A3032 RMK A01 T10141014  RH  100%=      5-min Rain = 0
KWE2 141554Z 12007KT M01/M01 A3033 RMK A01 T10131013  RH  100%=      5-min Rain = 0
KWE2 141555Z 12006KT M01/M01 A3033 RMK A01 T10131013  RH  100%=      5-min Rain = 0
KWE2 141556Z 12007KT M01/M01 A3033 RMK A01 T10121013  RH  100%=      5-min Rain = 0
KWE2 141557Z 13008KT M01/M01 A3033 RMK A01 T10131013  RH  100%=      5-min Rain = 0
KWE2 141558Z 13009KT M01/M01 A3033 RMK A01 T10141014  RH  100%=      5-min Rain = 0
KWE2 141559Z 13009KT M01/M01 A3033 RMK A01 T10141014  RH  100%=      5-min Rain = 0
KWE2 141600Z 13009KT M01/M01 A3033 RMK A01 T10141014  RH  100%=      5-min Rain = 0
KWE2 141601Z 13008KT M01/M01 A3033 RMK A01 T10141014  RH  100%=      5-min Rain = 0
KWE2 141602Z 13009KT M01/M01 A3033 RMK A01 T10141014  RH  100%=      5-min Rain = 0
KWE2 141603Z 13008KT M01/M01 A3033 RMK A01 T10141014  RH  100%=      5-min Rain = 0
KWE2 141604Z 13008KT M01/M01 A3033 RMK A01 T10141014  RH  100%=      5-min Rain = 0
KWE2 141605Z 12008KT M02/M02 A3033 RMK A01 T10151015  RH  100%=      5-min Rain = 0
KWE2 141606Z 12007KT M01/M01 A3033 RMK A01 T10141014  RH  100%=      5-min Rain = 0
KWE2 141607Z 12009KT M01/M01 A3033 RMK A01 T10131013  RH  100%=      5-min Rain = 0
KWE2 141608Z 12008KT M01/M01 A3033 RMK A01 T10141014  RH  100%=      5-min Rain = 0
KWE2 141609Z 14007KT M02/M02 A3033 RMK A01 T10151015  RH  100%=      5-min Rain = 0
KWE2 141610Z 13007KT M01/M01 A3033 RMK A01 T10141014  RH  100%=      5-min Rain = 0
KWE2 141611Z 13008KT M01/M01 A3033 RMK A01 T10131013  RH  100%=      5-min Rain = 0
KWE2 141612Z 12009KT M01/M01 A3033 RMK A01 T10131013  RH  100%=      5-min Rain = 0
KWE2 141613Z 13009KT M01/M01 A3033 RMK A01 T10131013  RH  100%=      5-min Rain = 0
KWE2 141614Z 13008KT M01/M01 A3033 RMK A01 T10131013  RH  100%=      5-min Rain = 0
KWE2 141615Z 14009KT M01/M01 A3033 RMK A01 T10131013  RH  100%=      5-min Rain = 0
KWE2 141616Z 13009KT M01/M01 A3033 RMK A01 T10131013  RH  100%=      5-min Rain = 0
KWE2 141617Z 14008KT M01/M01 A3033 RMK A01 T10131013  RH  100%=      5-min Rain = 0
KWE2 141618Z 12008KT M01/M01 A3033 RMK A01 T10141014  RH  100%=      5-min Rain = 0
KWE2 141619Z 13009KT M01/M01 A3033 RMK A01 T10141014  RH  100%=      5-min Rain = 0
KWE2 141620Z 13009KT M01/M01 A3033 RMK A01 T10131013  RH  100%=      5-min Rain = 0
KWE2 141621Z 13009KT M01/M01 A3033 RMK A01 T10131013  RH  100%=      5-min Rain = 0
KWE2 141622Z 13009KT M01/M01 A3033 RMK A01 T10131013  RH  100%=      5-min Rain = 0
KWE2 141623Z 13009KT M01/M01 A3033 RMK A01 T10141014  RH  100%=      5-min Rain = 0
KWE2 141624Z 14007KT M01/M01 A3032 RMK A01 T10131013  RH  100%=      5-min Rain = 0
KWE2 141625Z 14008KT M01/M01 A3032 RMK A01 T10121012  RH  100%=      5-min Rain = 0
KWE2 141626Z 13008KT M01/M01 A3032 RMK A01 T10111011  RH  100%=      5-min Rain = 0
KWE2 141627Z 13009KT M01/M01 A3032 RMK A01 T10111011  RH  100%=      5-min Rain = 0
KWE2 141628Z 14008KT M01/M01 A3032 RMK A01 T10121012  RH  100%=      5-min Rain = 0
KWE2 141629Z 14007KT M01/M01 A3032 RMK A01 T10111011  RH  100%=      5-min Rain = 0
KWE2 141630Z 15007KT M01/M01 A3032 RMK A01 T10121012  RH  100%=      5-min Rain = 0
KWE2 141631Z 14006KT M01/M01 A3032 RMK A01 T10111011  RH  100%=      5-min Rain = 0
KWE2 141632Z 13008KT M01/M01 A3032 RMK A01 T10101010  RH  100%=      5-min Rain = 0
KWE2 141633Z 12008KT M01/M01 A3032 RMK A01 T10101010  RH  100%=      5-min Rain = 0
KWE2 141634Z 14008KT M01/M01 A3032 RMK A01 T10111011  RH  100%=      5-min Rain = 0
KWE2 141635Z 13009KT M01/M01 A3032 RMK A01 T10121012  RH  100%=      5-min Rain = 0
KWE2 141636Z 13008KT M01/M01 A3032 RMK A01 T10131013  RH  100%=      5-min Rain = 0
KWE2 141637Z 13008KT M01/M01 A3032 RMK A01 T10131013  RH  100%=      5-min Rain = 0
KWE2 141638Z 14008KT M01/M01 A3032 RMK A01 T10121012  RH  100%=      5-min Rain = 0
KWE2 141639Z 13008KT M01/M01 A3032 RMK A01 T10121012  RH  100%=      5-min Rain = 0
KWE2 141640Z 14009KT M01/M01 A3032 RMK A01 T10111011  RH  100%=      5-min Rain = 0
KWE2 141641Z 14008KT M01/M01 A3032 RMK A01 T10101010  RH  100%=      5-min Rain = 0
KWE2 141642Z 14009KT M01/M01 A3032 RMK A01 T10111011  RH  100%=      5-min Rain = 0
KWE2 141643Z 14008KT M01/M01 A3032 RMK A01 T10111011  RH  100%=      5-min Rain = 0
KWE2 141644Z 14009KT M01/M01 A3032 RMK A01 T10111011  RH  100%=      5-min Rain = 0
KWE2 141645Z 15008KT M01/M01 A3032 RMK A01 T10111011  RH  100%=      5-min Rain = 0
KWE2 141646Z 13009KT M01/M01 A3032 RMK A01 T10101010  RH  100%=      5-min Rain = 0
KWE2 141647Z 12009KT M01/M01 A3032 RMK A01 T10111011  RH  100%=      5-min Rain = 0
KWE2 141648Z 14009KT M01/M01 A3032 RMK A01 T10111011  RH  100%=      5-min Rain = 0
KWE2 141649Z 14008KT M01/M01 A3032 RMK A01 T10111011  RH  100%=      5-min Rain = 0
KWE2 141650Z 14007KT M01/M01 A3032 RMK A01 T10121012  RH  100%=      5-min Rain = 0
KWE2 141651Z 13008KT M01/M01 A3032 RMK A01 T10121012  RH  100%=      5-min Rain = 0
KWE2 141652Z 12009KT M01/M01 A3032 RMK A01 T10111011  RH  100%=      5-min Rain = 0
KWE2 141653Z 12009KT M01/M01 A3032 RMK A01 T10111011  RH  100%=      5-min Rain = 0
KWE2 141654Z 14007KT M01/M01 A3032 RMK A01 T10121012  RH  100%=      5-min Rain = 0
KWE2 141655Z 13006KT M01/M01 A3032 RMK A01 T10111011  RH  100%=      5-min Rain = 0
KWE2 141656Z 13008KT M01/M01 A3032 RMK A01 T10111011  RH  100%=      5-min Rain = 0
KWE2 141657Z 13007KT M01/M01 A3032 RMK A01 T10121012  RH  100%=      5-min Rain = 0
KWE2 141658Z 14007KT M01/M01 A3032 RMK A01 T10121012  RH  100%=      5-min Rain = 0
KWE2 141659Z 14007KT M01/M01 A3032 RMK A01 T10121012  RH  100%=      5-min Rain = 0
KWE2 141700Z 15007KT M01/M01 A3032 RMK A01 T10121012  RH  100%=      5-min Rain = 0
KWE2 141701Z 14007KT M01/M01 A3032 RMK A01 T10111011  RH  100%=      5-min Rain = 0
KWE2 141702Z 13008KT M01/M01 A3032 RMK A01 T10101010  RH  100%=      5-min Rain = 0
KWE2 141703Z 14008KT M01/M01 A3032 RMK A01 T10091009  RH  100%=      5-min Rain = 0
KWE2 141704Z 14009KT M01/M01 A3032 RMK A01 T10101010  RH  100%=      5-min Rain = 0
KWE2 141705Z 13007KT M01/M01 A3032 RMK A01 T10101010  RH  100%=      5-min Rain = 0
KWE2 141706Z 13008KT M01/M01 A3032 RMK A01 T10091009  RH  100%=      5-min Rain = 0
KWE2 141707Z 14009KT M01/M01 A3032 RMK A01 T10081008  RH  100%=      5-min Rain = 0
KWE2 141708Z 15008KT M01/M01 A3032 RMK A01 T10091009  RH  100%=      5-min Rain = 0
KWE2 141709Z 14008KT M01/M01 A3032 RMK A01 T10101010  RH  100%=      5-min Rain = 0
KWE2 141710Z 14008KT M01/M01 A3032 RMK A01 T10091009  RH  100%=      5-min Rain = 0
KWE2 141711Z 14008KT M01/M01 A3032 RMK A01 T10091009  RH  100%=      5-min Rain = 0
KWE2 141712Z 13008KT M01/M01 A3032 RMK A01 T10091009  RH  100%=      5-min Rain = 0
KWE2 141713Z 13008KT M01/M01 A3032 RMK A01 T10081008  RH  100%=      5-min Rain = 0
KWE2 141714Z 13008KT M01/M01 A3032 RMK A01 T10081008  RH  100%=      5-min Rain = 0
KWE2 141715Z 13009KT M01/M01 A3031 RMK A01 T10071007  RH  100%=      5-min Rain = 0
KWE2 141716Z 13007KT M01/M01 A3031 RMK A01 T10071007  RH  100%=      5-min Rain = 0
KWE2 141717Z 13008KT M01/M01 A3031 RMK A01 T10071007  RH  100%=      5-min Rain = 0
KWE2 141718Z 14010KT M01/M01 A3031 RMK A01 T10081008  RH  100%=      5-min Rain = 0
KWE2 141719Z 13009KT M01/M01 A3031 RMK A01 T10081008  RH  100%=      5-min Rain = 0
KWE2 141720Z 13008KT M01/M01 A3031 RMK A01 T10091009  RH  100%=      5-min Rain = 0
KWE2 141721Z 13010KT M01/M01 A3031 RMK A01 T10081008  RH  100%=      5-min Rain = 0
KWE2 141722Z 14008KT M01/M01 A3031 RMK A01 T10081008  RH  100%=      5-min Rain = 0
KWE2 141723Z 15010KT M01/M01 A3031 RMK A01 T10081008  RH  100%=      5-min Rain = 0
KWE2 141724Z 13009KT M01/M01 A3031 RMK A01 T10081008  RH  100%=      5-min Rain = 0
KWE2 141725Z 14011KT M01/M01 A3031 RMK A01 T10081008  RH  100%=      5-min Rain = 0
KWE2 141726Z 15009KT M01/M01 A3031 RMK A01 T10081008  RH  100%=      5-min Rain = 0
KWE2 141727Z 15009KT M01/M01 A3031 RMK A01 T10091009  RH  100%=      5-min Rain = 0
KWE2 141728Z 15009KT M01/M01 A3031 RMK A01 T10091009  RH  100%=      5-min Rain = 0
KWE2 141729Z 14008KT M01/M01 A3031 RMK A01 T10081008  RH  100%=      5-min Rain = 0
KWE2 141730Z 15009KT M01/M01 A3031 RMK A01 T10071007  RH  100%=      5-min Rain = 0
KWE2 141731Z 15008KT M01/M01 A3031 RMK A01 T10071007  RH  100%=      5-min Rain = 0
KWE2 141732Z 15008KT M01/M01 A3031 RMK A01 T10071007  RH  100%=      5-min Rain = 0
KWE2 141733Z 16007KT M01/M01 A3031 RMK A01 T10071007  RH  100%=      5-min Rain = 0
KWE2 141734Z 16008KT M01/M01 A3031 RMK A01 T10061006  RH  100%=      5-min Rain = 0
KWE2 141735Z 15008KT M01/M01 A3031 RMK A01 T10061006  RH  100%=      5-min Rain = 0
KWE2 141736Z 15008KT M01/M01 A3031 RMK A01 T10061006  RH  100%=      5-min Rain = 0
KWE2 141737Z 15008KT M01/M01 A3031 RMK A01 T10071007  RH  100%=      5-min Rain = 0
KWE2 141738Z 14009KT M01/M01 A3031 RMK A01 T10071007  RH  100%=      5-min Rain = 0
KWE2 141739Z 14008KT M01/M01 A3031 RMK A01 T10071007  RH  100%=      5-min Rain = 0
KWE2 141740Z 14008KT M01/M01 A3031 RMK A01 T10061006  RH  100%=      5-min Rain = 0
KWE2 141741Z 16009KT M01/M01 A3031 RMK A01 T10061006  RH  100%=      5-min Rain = 0
KWE2 141742Z 16010KT M01/M01 A3031 RMK A01 T10051005  RH  100%=      5-min Rain = 0
KWE2 141743Z 16010KT M01/M01 A3031 RMK A01 T10051005  RH  100%=      5-min Rain = 0
KWE2 141744Z 15007KT M01/M01 A3031 RMK A01 T10051005  RH  100%=      5-min Rain = 0
KWE2 141745Z 15008KT M01/M01 A3031 RMK A01 T10051005  RH  100%=      5-min Rain = 0
KWE2 141746Z 16010KT M00/M00 A3031 RMK A01 T10041004  RH  100%=      5-min Rain = 0
KWE2 141747Z 17009KT M00/M00 A3031 RMK A01 T10041004  RH  100%=      5-min Rain = 0
KWE2 141748Z 16009KT M00/M00 A3031 RMK A01 T10031003  RH  100%=      5-min Rain = 0
KWE2 141749Z 16009KT M00/M00 A3031 RMK A01 T10031003  RH  100%=      5-min Rain = 0
KWE2 141750Z 15009KT M00/M00 A3031 RMK A01 T10031003  RH  100%=      5-min Rain = 0
KWE2 141751Z 16010KT M00/M00 A3031 RMK A01 T10031003  RH  100%=      5-min Rain = 0
KWE2 141752Z 17010KT M00/M00 A3031 RMK A01 T10031003  RH  100%=      5-min Rain = 0
KWE2 141753Z 16010KT M00/M00 A3031 RMK A01 T10041004  RH  100%=      5-min Rain = 0
KWE2 141754Z 16010KT M00/M00 A3031 RMK A01 T10041004  RH  100%=      5-min Rain = 0
KWE2 141755Z 17010KT M00/M00 A3031 RMK A01 T10031003  RH  100%=      5-min Rain = 0
KWE2 141756Z 18010KT M00/M00 A3031 RMK A01 T10031003  RH  100%=      5-min Rain = 0
KWE2 141757Z 18011KT M00/M00 A3031 RMK A01 T10031003  RH  100%=      5-min Rain = 0
KWE2 141758Z 17010KT M00/M00 A3031 RMK A01 T10031003  RH  100%=      5-min Rain = 0
KWE2 141759Z 16009KT M00/M00 A3031 RMK A01 T10031003  RH  100%=      5-min Rain = 0
KWE2 141800Z 17010KT M00/M00 A3031 RMK A01 T10031003  RH  100%=      5-min Rain = 0
KWE2 141801Z 16010KT M00/M00 A3031 RMK A01 T10031003  RH  100%=      5-min Rain = 0
KWE2 141802Z 16009KT M00/M00 A3031 RMK A01 T10031003  RH  100%=      5-min Rain = 0
KWE2 141803Z 17010KT M00/M00 A3031 RMK A01 T10031003  RH  100%=      5-min Rain = 0
KWE2 141804Z 17009KT M00/M00 A3031 RMK A01 T10041004  RH  100%=      5-min Rain = 0
KWE2 141805Z 17009KT M00/M00 A3031 RMK A01 T10031003  RH  100%=      5-min Rain = 0
KWE2 141806Z 18009KT M00/M00 A3031 RMK A01 T10031003  RH  100%=      5-min Rain = 0
KWE2 141807Z 18010KT M00/M00 A3031 RMK A01 T10031003  RH  100%=      5-min Rain = 0
KWE2 141808Z 16008KT M00/M00 A3031 RMK A01 T10031003  RH  100%=      5-min Rain = 0
KWE2 141809Z 17010KT M00/M00 A3031 RMK A01 T10021003  RH  100%=      5-min Rain = 0
KWE2 141810Z 16009KT M00/M00 A3031 RMK A01 T10031003  RH  100%=      5-min Rain = 0
KWE2 141811Z 17008KT M00/M00 A303 RMK A01 T10031003  RH  100%=      5-min Rain = 0
KWE2 141812Z 17009KT M00/M00 A303 RMK A01 T10021002  RH  100%=      5-min Rain = 0
KWE2 141813Z 17009KT M00/M00 A303 RMK A01 T10021002  RH  100%=      5-min Rain = 0
KWE2 141814Z 16009KT M00/M00 A303 RMK A01 T10021002  RH  100%=      5-min Rain = 0
KWE2 141815Z 17009KT M00/M00 A303 RMK A01 T10021002  RH  100%=      5-min Rain = 0
KWE2 141816Z 18009KT M00/M00 A303 RMK A01 T10021002  RH  100%=      5-min Rain = 0
KWE2 141817Z 18008KT M00/M00 A303 RMK A01 T10021002  RH  100%=      5-min Rain = 0
KWE2 141818Z 18007KT M00/M00 A303 RMK A01 T10031003  RH  100%=      5-min Rain = 0
KWE2 141819Z 17009KT M00/M00 A303 RMK A01 T10021002  RH  100%=      5-min Rain = 0
KWE2 141820Z 17008KT M00/M00 A303 RMK A01 T10021002  RH  100%=      5-min Rain = 0
KWE2 141821Z 17008KT M00/M00 A303 RMK A01 T10011002  RH  100%=      5-min Rain = 0
KWE2 141822Z 17007KT M00/M00 A303 RMK A01 T10011001  RH  100%=      5-min Rain = 0
KWE2 141823Z 17008KT M00/M00 A303 RMK A01 T10011001  RH  100%=      5-min Rain = 0
KWE2 141824Z 15008KT M00/M00 A303 RMK A01 T10011001  RH  100%=      5-min Rain = 0
KWE2 141825Z 16008KT M00/M00 A303 RMK A01 T10011001  RH  100%=      5-min Rain = 0
KWE2 141826Z 17010KT M00/M00 A303 RMK A01 T10011001  RH  100%=      5-min Rain = 0
KWE2 141827Z 16008KT M00/M00 A303 RMK A01 T10011001  RH  100%=      5-min Rain = 0
KWE2 141828Z 17008KT M00/M00 A303 RMK A01 T10011001  RH  100%=      5-min Rain = 0
KWE2 141829Z 17008KT 00/00 A303 RMK A01 T00-000-0  RH  100%=      5-min Rain = 0
KWE2 141830Z 17010KT 00/00 A3029 RMK A01 T00000000  RH  100%=      5-min Rain = 0
KWE2 141831Z 18009KT 00/00 A3029 RMK A01 T00000000  RH  100%=      5-min Rain = 0
KWE2 141832Z 18008KT 00/00 A3029 RMK A01 T00000000  RH  100%=      5-min Rain = 0
KWE2 141833Z 16008KT 00/00 A3029 RMK A01 T00010001  RH  100%=      5-min Rain = 0
KWE2 141834Z 16008KT 00/00 A3029 RMK A01 T00010001  RH  100%=      5-min Rain = 0
KWE2 141835Z 16008KT 00/00 A3029 RMK A01 T00000000  RH  100%=      5-min Rain = 0
KWE2 141836Z 17010KT 00/00 A3029 RMK A01 T00000000  RH  100%=      5-min Rain = 0
KWE2 141837Z 17009KT 00/00 A3029 RMK A01 T00000000  RH  100%=      5-min Rain = 0
KWE2 141838Z 15010KT 00/00 A3029 RMK A01 T00000000  RH  100%=      5-min Rain = 0
KWE2 141839Z 15010KT 00/00 A3029 RMK A01 T00010001  RH  100%=      5-min Rain = 0
KWE2 141840Z 16009KT 00/00 A3029 RMK A01 T00000000  RH  100%=      5-min Rain = 0
KWE2 141841Z 17009KT 00/00 A3029 RMK A01 T00000000  RH  100%=      5-min Rain = 0
KWE2 141842Z 17009KT 00/00 A3029 RMK A01 T00-000-0  RH  100%=      5-min Rain = 0
KWE2 141843Z 16011KT 00/00 A3029 RMK A01 T00-000-0  RH  100%=      5-min Rain = 0
KWE2 141844Z 16010KT 00/00 A3029 RMK A01 T00000000  RH  100%=      5-min Rain = 0
KWE2 141845Z 15010KT 00/00 A3029 RMK A01 T00000000  RH  100%=      5-min Rain = 0
KWE2 141846Z 16010KT 00/00 A3029 RMK A01 T00000000  RH  100%=      5-min Rain = 0
KWE2 141847Z 16008KT 00/00 A3029 RMK A01 T00000000  RH  100%=      5-min Rain = 0
KWE2 141848Z 17009KT 00/00 A3029 RMK A01 T00010001  RH  100%=      5-min Rain = 0
KWE2 141849Z 16008KT 00/00 A3029 RMK A01 T00010001  RH  100%=      5-min Rain = 0
KWE2 141850Z 16010KT 00/00 A3029 RMK A01 T00020002  RH  100%=      5-min Rain = 0
KWE2 141851Z 16010KT 00/00 A3029 RMK A01 T00020002  RH  100%=      5-min Rain = 0
KWE2 141852Z 16010KT 00/00 A3029 RMK A01 T00010001  RH  100%=      5-min Rain = 0
KWE2 141853Z 16009KT 00/00 A3028 RMK A01 T00010001  RH  100%=      5-min Rain = 0
KWE2 141854Z 16011KT 00/00 A3028 RMK A01 T00010001  RH  100%=      5-min Rain = 0
KWE2 141855Z 17010KT 00/00 A3028 RMK A01 T00010001  RH  100%=      5-min Rain = 0
KWE2 141856Z 17009KT 00/00 A3028 RMK A01 T00020002  RH  100%=      5-min Rain = 0
KWE2 141857Z 18011KT 00/00 A3028 RMK A01 T00020002  RH  100%=      5-min Rain = 0
KWE2 141858Z 17011KT 00/00 A3028 RMK A01 T00030003  RH  100%=      5-min Rain = 0
KWE2 141859Z 16010KT 00/00 A3028 RMK A01 T00030003  RH  100%=      5-min Rain = 0
KWE2 141900Z 16011KT 00/00 A3028 RMK A01 T00030003  RH  100%=      5-min Rain = 0
KWE2 141901Z 18010KT 00/00 A3028 RMK A01 T00030003  RH  100%=      5-min Rain = 0
KWE2 141902Z 17009KT 00/00 A3028 RMK A01 T00030003  RH  100%=      5-min Rain = 0
KWE2 141903Z 17009KT 00/00 A3028 RMK A01 T00030003  RH  100%=      5-min Rain = 0
KWE2 141904Z 16008KT 00/00 A3028 RMK A01 T00030003  RH  100%=      5-min Rain = 0
KWE2 141905Z 17012KT 01/01 A3028 RMK A01 T00050005  RH  100%=      5-min Rain = 0
KWE2 141906Z 18011KT 01/01 A3028 RMK A01 T00060006  RH  100%=      5-min Rain = 0
KWE2 141907Z 18011KT 01/01 A3028 RMK A01 T00060006  RH  100%=      5-min Rain = 0
KWE2 141908Z 18012KT 01/01 A3028 RMK A01 T00060006  RH  100%=      5-min Rain = 0
KWE2 141909Z 19010KT 01/01 A3028 RMK A01 T00060006  RH  100%=      5-min Rain = 0
KWE2 141910Z 20011KT 01/01 A3028 RMK A01 T00060006  RH  100%=      5-min Rain = 0
KWE2 141911Z 18011KT 01/01 A3027 RMK A01 T00060006  RH  100%=      5-min Rain = 0
KWE2 141912Z 17010KT 01/01 A3028 RMK A01 T00060006  RH  100%=      5-min Rain = 0
KWE2 141913Z 17010KT 01/01 A3028 RMK A01 T00050005  RH  100%=      5-min Rain = 0
KWE2 141914Z 17010KT 01/01 A3027 RMK A01 T00050005  RH  100%=      5-min Rain = 0
KWE2 141915Z 17010KT 01/01 A3027 RMK A01 T00050005  RH  100%=      5-min Rain = 0
KWE2 141916Z 17010KT 01/01 A3027 RMK A01 T00050005  RH  100%=      5-min Rain = 0
KWE2 141917Z 17010KT 01/01 A3027 RMK A01 T00050005  RH  100%=      5-min Rain = 0
KWE2 141918Z 17010KT 01/01 A3027 RMK A01 T00060006  RH  100%=      5-min Rain = 0
KWE2 141919Z 16010KT 01/01 A3027 RMK A01 T00060006  RH  100%=      5-min Rain = 0
KWE2 141920Z 17010KT 01/01 A3027 RMK A01 T00050005  RH  100%=      5-min Rain = 0
KWE2 141921Z 17010KT 01/01 A3027 RMK A01 T00050005  RH  100%=      5-min Rain = 0
KWE2 141922Z 17010KT 01/01 A3027 RMK A01 T00060006  RH  100%=      5-min Rain = 0
KWE2 141923Z 17010KT 01/01 A3027 RMK A01 T00060006  RH  100%=      5-min Rain = 0
KWE2 141924Z 17009KT 01/01 A3027 RMK A01 T00060006  RH  100%=      5-min Rain = 0
KWE2 141925Z 16007KT 01/01 A3027 RMK A01 T00070007  RH  100%=      5-min Rain = 0
KWE2 141926Z 15010KT 01/01 A3027 RMK A01 T00070007  RH  100%=      5-min Rain = 0
KWE2 141927Z 16008KT 01/01 A3026 RMK A01 T00070007  RH  100%=      5-min Rain = 0
KWE2 141928Z 17008KT 01/01 A3026 RMK A01 T00080008  RH  100%=      5-min Rain = 0
KWE2 141929Z 19008KT 01/01 A3026 RMK A01 T00100010  RH  100%=      5-min Rain = 0
KWE2 141930Z 17008KT 01/01 A3026 RMK A01 T00100010  RH  100%=      5-min Rain = 0
KWE2 141931Z 17008KT 01/01 A3026 RMK A01 T00100010  RH  100%=      5-min Rain = 0
KWE2 141932Z 18010KT 01/01 A3026 RMK A01 T00100010  RH  100%=      5-min Rain = 0
KWE2 141933Z 19008KT 01/01 A3026 RMK A01 T00090009  RH  100%=      5-min Rain = 0
KWE2 141934Z 19007KT 01/01 A3026 RMK A01 T00080008  RH  100%=      5-min Rain = 0
KWE2 141935Z 18007KT 01/01 A3026 RMK A01 T00080008  RH  100%=      5-min Rain = 0
KWE2 141936Z 18008KT 01/01 A3026 RMK A01 T00090009  RH  100%=      5-min Rain = 0
KWE2 141937Z 17010KT 01/01 A3026 RMK A01 T00100010  RH  100%=      5-min Rain = 0
KWE2 141938Z 17008KT 01/01 A3026 RMK A01 T00100010  RH  100%=      5-min Rain = 0
KWE2 141939Z 18009KT 01/01 A3026 RMK A01 T00110011  RH  100%=      5-min Rain = 0
KWE2 141940Z 19010KT 01/01 A3026 RMK A01 T00110011  RH  100%=      5-min Rain = 0
KWE2 141941Z 18010KT 01/01 A3026 RMK A01 T00120012  RH  100%=      5-min Rain = 0
KWE2 141942Z 18010KT 01/01 A3026 RMK A01 T00120012  RH  100%=      5-min Rain = 0
KWE2 141943Z 18010KT 01/01 A3026 RMK A01 T00120012  RH  100%=      5-min Rain = 0
KWE2 141944Z 17009KT 01/01 A3026 RMK A01 T00120012  RH  100%=      5-min Rain = 0
KWE2 141945Z 18008KT 01/01 A3026 RMK A01 T00120012  RH  100%=      5-min Rain = 0
KWE2 141946Z 17009KT 01/01 A3025 RMK A01 T00130013  RH  100%=      5-min Rain = 0
KWE2 141947Z 17010KT 01/01 A3025 RMK A01 T00130013  RH  100%=      5-min Rain = 0
KWE2 141948Z 18009KT 01/01 A3025 RMK A01 T00130013  RH  100%=      5-min Rain = 0
KWE2 141949Z 18008KT 01/01 A3025 RMK A01 T00130013  RH  100%=      5-min Rain = 0
KWE2 141950Z 18009KT 01/01 A3025 RMK A01 T00140014  RH  100%=      5-min Rain = 0
KWE2 141951Z 16009KT 01/01 A3025 RMK A01 T00140014  RH  100%=      5-min Rain = 0
KWE2 141952Z 16008KT 01/01 A3025 RMK A01 T00140012  RH  099%=      5-min Rain = 0
KWE2 141953Z 17007KT 01/01 A3025 RMK A01 T00130012  RH  099%=      5-min Rain = 0
KWE2 141954Z 16008KT 01/01 A3025 RMK A01 T00140014  RH  100%=      5-min Rain = 0
KWE2 141955Z 16010KT 01/01 A3025 RMK A01 T00140012  RH  098%=      5-min Rain = 0
KWE2 141956Z 17009KT 01/01 A3025 RMK A01 T00130010  RH  098%=      5-min Rain = 0
KWE2 141957Z 16009KT 01/01 A3025 RMK A01 T00130011  RH  098%=      5-min Rain = 0
KWE2 141958Z 16009KT 01/01 A3025 RMK A01 T00130010  RH  098%=      5-min Rain = 0
KWE2 141959Z 17009KT 01/01 A3025 RMK A01 T00120010  RH  099%=      5-min Rain = 0
KWE2 142000Z 17008KT 01/01 A3024 RMK A01 T00120011  RH  099%=      5-min Rain = 0
KWE2 142001Z 17009KT 01/01 A3024 RMK A01 T00120010  RH  099%=      5-min Rain = 0
KWE2 142002Z 17009KT 01/01 A3024 RMK A01 T00130012  RH  099%=      5-min Rain = 0
KWE2 142003Z 17010KT 01/01 A3024 RMK A01 T00140013  RH  100%=      5-min Rain = 0
KWE2 142004Z 17009KT 01/01 A3024 RMK A01 T00140012  RH  099%=      5-min Rain = 0
KWE2 142005Z 16007KT 01/01 A3024 RMK A01 T00140011  RH  098%=      5-min Rain = 0
KWE2 142006Z 16009KT 01/01 A3024 RMK A01 T00140013  RH  099%=      5-min Rain = 0
KWE2 142007Z 17008KT 02/01 A3024 RMK A01 T00150013  RH  098%=      5-min Rain = 0
KWE2 142008Z 17010KT 02/01 A3024 RMK A01 T00160014  RH  098%=      5-min Rain = 0
KWE2 142009Z 17011KT 02/01 A3024 RMK A01 T00170012  RH  097%=      5-min Rain = 0
KWE2 142010Z 17010KT 02/01 A3024 RMK A01 T00170012  RH  097%=      5-min Rain = 0
KWE2 142011Z 17009KT 02/01 A3024 RMK A01 T00160011  RH  096%=      5-min Rain = 0
KWE2 142012Z 18008KT 02/01 A3024 RMK A01 T00160011  RH  096%=      5-min Rain = 0
KWE2 142013Z 18009KT 02/01 A3024 RMK A01 T00160012  RH  097%=      5-min Rain = 0
KWE2 142014Z 17010KT 02/01 A3024 RMK A01 T00160013  RH  098%=      5-min Rain = 0
KWE2 142015Z 16010KT 02/01 A3024 RMK A01 T00160011  RH  097%=      5-min Rain = 0
KWE2 142016Z 16010KT 02/01 A3024 RMK A01 T00160010  RH  096%=      5-min Rain = 0
KWE2 142017Z 17010KT 02/01 A3024 RMK A01 T00160011  RH  096%=      5-min Rain = 0
KWE2 142018Z 17010KT 02/01 A3024 RMK A01 T00170011  RH  096%=      5-min Rain = 0
KWE2 142019Z 17008KT 02/01 A3024 RMK A01 T00170010  RH  095%=      5-min Rain = 0
KWE2 142020Z 18008KT 02/01 A3024 RMK A01 T00170011  RH  096%=      5-min Rain = 0
KWE2 142021Z 17009KT 02/01 A3024 RMK A01 T00170012  RH  096%=      5-min Rain = 0
KWE2 142022Z 17010KT 02/01 A3024 RMK A01 T00180012  RH  096%=      5-min Rain = 0
KWE2 142023Z 17010KT 02/01 A3024 RMK A01 T00180009  RH  094%=      5-min Rain = 0
KWE2 142024Z 18011KT 02/01 A3024 RMK A01 T00180009  RH  094%=      5-min Rain = 0
KWE2 142025Z 18009KT 02/01 A3024 RMK A01 T00180009  RH  093%=      5-min Rain = 0
KWE2 142026Z 18008KT 02/01 A3024 RMK A01 T00190010  RH  093%=      5-min Rain = 0
KWE2 142027Z 20009KT 02/01 A3024 RMK A01 T00200011  RH  094%=      5-min Rain = 0
KWE2 142028Z 18008KT 02/01 A3023 RMK A01 T00200009  RH  093%=      5-min Rain = 0
KWE2 142029Z 17008KT 02/01 A3023 RMK A01 T00180009  RH  093%=      5-min Rain = 0
KWE2 142030Z 17008KT 02/01 A3023 RMK A01 T00180009  RH  094%=      5-min Rain = 0
KWE2 142031Z 16009KT 02/01 A3023 RMK A01 T00180009  RH  094%=      5-min Rain = 0
KWE2 142032Z 16009KT 02/01 A3023 RMK A01 T00180009  RH  094%=      5-min Rain = 0
KWE2 142033Z 16009KT 02/01 A3023 RMK A01 T00180007  RH  092%=      5-min Rain = 0
KWE2 142034Z 18009KT 02/01 A3023 RMK A01 T00180010  RH  094%=      5-min Rain = 0
KWE2 142035Z 18009KT 02/01 A3023 RMK A01 T00190009  RH  093%=      5-min Rain = 0
KWE2 142036Z 17007KT 02/01 A3023 RMK A01 T00190009  RH  094%=      5-min Rain = 0
KWE2 142037Z 17007KT 02/01 A3023 RMK A01 T00190009  RH  093%=      5-min Rain = 0
KWE2 142038Z 17007KT 02/01 A3023 RMK A01 T00190010  RH  094%=      5-min Rain = 0
KWE2 142039Z 16010KT 02/01 A3023 RMK A01 T00200010  RH  093%=      5-min Rain = 0
KWE2 142040Z 17009KT 02/01 A3023 RMK A01 T00200007  RH  091%=      5-min Rain = 0
KWE2 142041Z 16007KT 02/01 A3023 RMK A01 T00190009  RH  093%=      5-min Rain = 0
KWE2 142042Z 15009KT 02/01 A3023 RMK A01 T00190010  RH  093%=      5-min Rain = 0
KWE2 142043Z 16010KT 02/01 A3022 RMK A01 T00190007  RH  092%=      5-min Rain = 0
KWE2 142044Z 16010KT 02/01 A3022 RMK A01 T00190006  RH  091%=      5-min Rain = 0
KWE2 142045Z 17010KT 02/01 A3022 RMK A01 T00200007  RH  091%=      5-min Rain = 0
KWE2 142046Z 16008KT 02/01 A3022 RMK A01 T00200007  RH  091%=      5-min Rain = 0
KWE2 142047Z 16009KT 02/01 A3022 RMK A01 T00200005  RH  090%=      5-min Rain = 0
KWE2 142048Z 16010KT 02/01 A3022 RMK A01 T00210009  RH  092%=      5-min Rain = 0
KWE2 142049Z 16009KT 02/01 A3022 RMK A01 T00210009  RH  092%=      5-min Rain = 0
KWE2 142050Z 15009KT 02/01 A3022 RMK A01 T00230010  RH  091%=      5-min Rain = 0
KWE2 142051Z 16011KT 02/01 A3022 RMK A01 T00230008  RH  090%=      5-min Rain = 0
KWE2 142052Z 16012KT 02/01 A3022 RMK A01 T00220008  RH  090%=      5-min Rain = 0
KWE2 142053Z 17011KT 02/01 A3022 RMK A01 T00220007  RH  090%=      5-min Rain = 0
KWE2 142054Z 17011KT 02/01 A3022 RMK A01 T00210008  RH  092%=      5-min Rain = 0
KWE2 142055Z 17011KT 02/01 A3022 RMK A01 T00200009  RH  092%=      5-min Rain = 0
KWE2 142056Z 17009KT 02/01 A3022 RMK A01 T00200009  RH  092%=      5-min Rain = 0
KWE2 142057Z 17008KT 02/01 A3022 RMK A01 T00200013  RH  095%=      5-min Rain = 0
KWE2 142058Z 17009KT 02/01 A3022 RMK A01 T00210012  RH  094%=      5-min Rain = 0
KWE2 142059Z 17010KT 02/01 A3022 RMK A01 T00210010  RH  093%=      5-min Rain = 0
KWE2 142100Z 16012KT 02/01 A3022 RMK A01 T00200010  RH  093%=      5-min Rain = 0
KWE2 142101Z 17013KT 02/01 A3022 RMK A01 T00210009  RH  092%=      5-min Rain = 0
KWE2 142102Z 18011KT 02/01 A3022 RMK A01 T00220010  RH  092%=      5-min Rain = 0
KWE2 142103Z 18010KT 02/01 A3021 RMK A01 T00220009  RH  091%=      5-min Rain = 0
KWE2 142104Z 18010KT 02/01 A3021 RMK A01 T00220011  RH  093%=      5-min Rain = 0
KWE2 142105Z 17011KT 02/01 A3021 RMK A01 T00230013  RH  093%=      5-min Rain = 0
KWE2 142106Z 17010KT 02/01 A3021 RMK A01 T00220010  RH  091%=      5-min Rain = 0
KWE2 142107Z 16009KT 02/01 A3021 RMK A01 T00220009  RH  091%=      5-min Rain = 0
KWE2 142108Z 17010KT 02/01 A3021 RMK A01 T00230010  RH  092%=      5-min Rain = 0
KWE2 142109Z 17009KT 02/01 A3021 RMK A01 T00240010  RH  091%=      5-min Rain = 0
KWE2 142110Z 17010KT 03/01 A3021 RMK A01 T00250013  RH  092%=      5-min Rain = 0
KWE2 142111Z 19010KT 03/01 A3021 RMK A01 T00260013  RH  091%=      5-min Rain = 0
KWE2 142112Z 18012KT 03/01 A3021 RMK A01 T00260012  RH  091%=      5-min Rain = 0
KWE2 142113Z 18011KT 03/01 A3021 RMK A01 T00250012  RH  091%=      5-min Rain = 0
KWE2 142114Z 17011KT 03/01 A3021 RMK A01 T00250012  RH  091%=      5-min Rain = 0
KWE2 142115Z 16011KT 03/01 A3021 RMK A01 T00250012  RH  091%=      5-min Rain = 0
KWE2 142116Z 15010KT 02/01 A3021 RMK A01 T00240009  RH  090%=      5-min Rain = 0
KWE2 142117Z 15009KT 02/01 A3021 RMK A01 T00240009  RH  090%=      5-min Rain = 0
KWE2 142118Z 15010KT 02/01 A3021 RMK A01 T00240009  RH  090%=      5-min Rain = 0
KWE2 142119Z 15011KT 02/01 A3021 RMK A01 T00240009  RH  090%=      5-min Rain = 0
KWE2 142120Z 16010KT 02/01 A3021 RMK A01 T00240009  RH  090%=      5-min Rain = 0
KWE2 142121Z 17011KT 02/01 A3021 RMK A01 T00240009  RH  090%=      5-min Rain = 0
KWE2 142122Z 16009KT 02/01 A3021 RMK A01 T00240009  RH  090%=      5-min Rain = 0
KWE2 142123Z 15012KT 02/01 A3021 RMK A01 T00240010  RH  091%=      5-min Rain = 0
KWE2 142124Z 16013KT 02/01 A302 RMK A01 T00240009  RH  090%=      5-min Rain = 0
KWE2 142125Z 16012KT 02/01 A302 RMK A01 T00240009  RH  090%=      5-min Rain = 0
KWE2 142126Z 15012KT 02/01 A302 RMK A01 T00240011  RH  091%=      5-min Rain = 0
KWE2 142127Z 15010KT 02/01 A302 RMK A01 T00240010  RH  091%=      5-min Rain = 0
KWE2 142128Z 16012KT 02/01 A302 RMK A01 T00240009  RH  090%=      5-min Rain = 0
KWE2 142129Z 15013KT 02/01 A302 RMK A01 T00230010  RH  091%=      5-min Rain = 0
KWE2 142130Z 15012KT 02/01 A302 RMK A01 T00220010  RH  092%=      5-min Rain = 0
KWE2 142131Z 15011KT 02/01 A302 RMK A01 T00210010  RH  093%=      5-min Rain = 0
KWE2 142132Z 15011KT 02/01 A302 RMK A01 T00210012  RH  094%=      5-min Rain = 0
KWE2 142133Z 15011KT 02/01 A302 RMK A01 T00210012  RH  094%=      5-min Rain = 0
KWE2 142134Z 15011KT 02/01 A302 RMK A01 T00210012  RH  094%=      5-min Rain = 0
KWE2 142135Z 15010KT 02/01 A302 RMK A01 T00220011  RH  093%=      5-min Rain = 0
KWE2 142136Z 17011KT 02/01 A302 RMK A01 T00220012  RH  093%=      5-min Rain = 0
KWE2 142137Z 15012KT 02/01 A302 RMK A01 T00220012  RH  093%=      5-min Rain = 0
KWE2 142138Z 15011KT 02/01 A302 RMK A01 T00230010  RH  092%=      5-min Rain = 0
KWE2 142139Z 15011KT 02/01 A302 RMK A01 T00220010  RH  092%=      5-min Rain = 0
KWE2 142140Z 15011KT 02/01 A302 RMK A01 T00230010  RH  092%=      5-min Rain = 0
KWE2 142141Z 17010KT 02/01 A302 RMK A01 T00220010  RH  092%=      5-min Rain = 0
KWE2 142142Z 17011KT 02/01 A302 RMK A01 T00220011  RH  092%=      5-min Rain = 0
KWE2 142143Z 16012KT 02/01 A302 RMK A01 T00220011  RH  092%=      5-min Rain = 0
KWE2 142144Z 17011KT 02/01 A302 RMK A01 T00220010  RH  092%=      5-min Rain = 0
KWE2 142145Z 18010KT 02/01 A302 RMK A01 T00230011  RH  092%=      5-min Rain = 0
KWE2 142146Z 17009KT 02/01 A302 RMK A01 T00230011  RH  092%=      5-min Rain = 0
KWE2 142147Z 16009KT 02/01 A302 RMK A01 T00220013  RH  093%=      5-min Rain = 0
KWE2 142148Z 17011KT 02/01 A302 RMK A01 T00230014  RH  094%=      5-min Rain = 0
KWE2 142149Z 17011KT 03/02 A302 RMK A01 T00250015  RH  094%=      5-min Rain = 0
KWE2 142150Z 17012KT 03/02 A302 RMK A01 T00250015  RH  093%=      5-min Rain = 0
KWE2 142151Z 17011KT 03/01 A302 RMK A01 T00250014  RH  092%=      5-min Rain = 0
KWE2 142152Z 17012KT 03/01 A302 RMK A01 T00250013  RH  092%=      5-min Rain = 0
KWE2 142153Z 16012KT 02/01 A302 RMK A01 T00240011  RH  091%=      5-min Rain = 0
KWE2 142154Z 16011KT 02/01 A3019 RMK A01 T00240011  RH  091%=      5-min Rain = 0
KWE2 142155Z 16010KT 02/01 A3019 RMK A01 T00240010  RH  090%=      5-min Rain = 0
KWE2 142156Z 17012KT 02/01 A3019 RMK A01 T00240011  RH  091%=      5-min Rain = 0
KWE2 142157Z 16013KT 03/01 A3019 RMK A01 T00250012  RH  091%=      5-min Rain = 0
KWE2 142158Z 17010KT 02/01 A3019 RMK A01 T00240010  RH  090%=      5-min Rain = 0
KWE2 142159Z 15011KT 02/01 A3019 RMK A01 T00240011  RH  091%=      5-min Rain = 0
KWE2 142200Z 15012KT 03/01 A3019 RMK A01 T00250011  RH  091%=      5-min Rain = 0
KWE2 142201Z 16011KT 03/01 A3019 RMK A01 T00250011  RH  090%=      5-min Rain = 0
KWE2 142202Z 16010KT 03/01 A3019 RMK A01 T00250011  RH  090%=      5-min Rain = 0
KWE2 142203Z 16011KT 03/01 A3019 RMK A01 T00260010  RH  089%=      5-min Rain = 0
KWE2 142204Z 16010KT 03/01 A3019 RMK A01 T00270010  RH  089%=      5-min Rain = 0
KWE2 142205Z 17010KT 03/01 A3019 RMK A01 T00270010  RH  089%=      5-min Rain = 0
KWE2 142206Z 17012KT 03/01 A3019 RMK A01 T00280012  RH  089%=      5-min Rain = 0
KWE2 142207Z 16011KT 03/01 A3019 RMK A01 T00280011  RH  089%=      5-min Rain = 0
KWE2 142208Z 16009KT 03/01 A3019 RMK A01 T00280012  RH  089%=      5-min Rain = 0
KWE2 142209Z 16011KT 03/01 A3019 RMK A01 T00290012  RH  088%=      5-min Rain = 0
KWE2 142210Z 15009KT 03/01 A3019 RMK A01 T00290011  RH  088%=      5-min Rain = 0
KWE2 142211Z 16009KT 03/01 A3019 RMK A01 T00300012  RH  088%=      5-min Rain = 0
KWE2 142212Z 16010KT 03/01 A3019 RMK A01 T00300012  RH  088%=      5-min Rain = 0
KWE2 142213Z 16010KT 03/01 A3019 RMK A01 T00310012  RH  088%=      5-min Rain = 0
KWE2 142214Z 16012KT 03/01 A3019 RMK A01 T00310012  RH  087%=      5-min Rain = 0
KWE2 142215Z 15013KT 03/01 A3019 RMK A01 T00310011  RH  087%=      5-min Rain = 0
KWE2 142216Z 15012KT 03/01 A3019 RMK A01 T00300011  RH  087%=      5-min Rain = 0
KWE2 142217Z 15012KT 03/01 A3019 RMK A01 T00300011  RH  087%=      5-min Rain = 0
KWE2 142218Z 15010KT 03/01 A3019 RMK A01 T00300010  RH  087%=      5-min Rain = 0
KWE2 142219Z 15010KT 03/01 A3019 RMK A01 T00290011  RH  088%=      5-min Rain = 0
KWE2 142220Z 15011KT 03/01 A3019 RMK A01 T00290011  RH  088%=      5-min Rain = 0
KWE2 142221Z 15012KT 03/01 A3019 RMK A01 T00310011  RH  087%=      5-min Rain = 0
KWE2 142222Z 15012KT 03/01 A3019 RMK A01 T00310011  RH  087%=      5-min Rain = 0
KWE2 142223Z 15011KT 03/01 A3019 RMK A01 T00300010  RH  087%=      5-min Rain = 0
KWE2 142224Z 15012KT 03/01 A3019 RMK A01 T00310011  RH  087%=      5-min Rain = 0
KWE2 142225Z 15012KT 03/01 A3019 RMK A01 T00320011  RH  087%=      5-min Rain = 0
KWE2 142226Z 15010KT 03/01 A3019 RMK A01 T00320011  RH  086%=      5-min Rain = 0
KWE2 142227Z 16011KT 03/01 A3019 RMK A01 T00320011  RH  086%=      5-min Rain = 0
KWE2 142228Z 16010KT 03/01 A3019 RMK A01 T00320010  RH  086%=      5-min Rain = 0
KWE2 142229Z 17012KT 03/01 A3019 RMK A01 T00320011  RH  087%=      5-min Rain = 0
KWE2 142230Z 17011KT 03/01 A3019 RMK A01 T00310011  RH  087%=      5-min Rain = 0
KWE2 142231Z 16009KT 03/01 A3019 RMK A01 T00310013  RH  088%=      5-min Rain = 0
KWE2 142232Z 16009KT 03/01 A3019 RMK A01 T00320014  RH  088%=      5-min Rain = 0
KWE2 142233Z 15010KT 03/01 A3019 RMK A01 T00330014  RH  087%=      5-min Rain = 0
KWE2 142234Z 16011KT 03/01 A3019 RMK A01 T00330012  RH  086%=      5-min Rain = 0
KWE2 142235Z 16013KT 03/01 A3018 RMK A01 T00340012  RH  085%=      5-min Rain = 0
KWE2 142236Z 16011KT 03/01 A3019 RMK A01 T00340011  RH  085%=      5-min Rain = 0
KWE2 142237Z 16011KT 03/01 A3019 RMK A01 T00340012  RH  085%=      5-min Rain = 0
KWE2 142238Z 17011KT 04/01 A3019 RMK A01 T00350011  RH  085%=      5-min Rain = 0
KWE2 142239Z 17014KT 04/01 A3018 RMK A01 T00350012  RH  085%=      5-min Rain = 0
KWE2 142240Z 15012KT 04/01 A3018 RMK A01 T00350011  RH  085%=      5-min Rain = 0
KWE2 142241Z 15010KT 04/01 A3018 RMK A01 T00350013  RH  085%=      5-min Rain = 0
KWE2 142242Z 15012KT 04/01 A3018 RMK A01 T00370013  RH  084%=      5-min Rain = 0
KWE2 142243Z 15012KT 04/01 A3018 RMK A01 T00370012  RH  083%=      5-min Rain = 0
KWE2 142244Z 15011KT 04/01 A3018 RMK A01 T00360011  RH  084%=      5-min Rain = 0
KWE2 142245Z 16010KT 04/01 A3018 RMK A01 T00350011  RH  084%=      5-min Rain = 0
KWE2 142246Z 15010KT 04/01 A3018 RMK A01 T00350011  RH  084%=      5-min Rain = 0
KWE2 142247Z 15012KT 04/01 A3018 RMK A01 T00360012  RH  084%=      5-min Rain = 0
KWE2 142248Z 15013KT 04/01 A3018 RMK A01 T00350011  RH  084%=      5-min Rain = 0
KWE2 142249Z 15012KT 04/01 A3018 RMK A01 T00360011  RH  084%=      5-min Rain = 0
KWE2 142250Z 14013KT 04/01 A3018 RMK A01 T00350011  RH  084%=      5-min Rain = 0
KWE2 142251Z 15013KT 04/01 A3018 RMK A01 T00360011  RH  084%=      5-min Rain = 0
KWE2 142252Z 15010KT 04/01 A3018 RMK A01 T00360011  RH  084%=      5-min Rain = 0
KWE2 142253Z 15010KT 04/01 A3018 RMK A01 T00360012  RH  084%=      5-min Rain = 0
KWE2 142254Z 15011KT 04/01 A3018 RMK A01 T00360012  RH  084%=      5-min Rain = 0
KWE2 142255Z 16011KT 04/01 A3018 RMK A01 T00370012  RH  084%=      5-min Rain = 0
KWE2 142256Z 16010KT 04/01 A3018 RMK A01 T00370012  RH  084%=      5-min Rain = 0
KWE2 142257Z 15009KT 04/01 A3018 RMK A01 T00370012  RH  084%=      5-min Rain = 0
KWE2 142258Z 15011KT 04/01 A3018 RMK A01 T00380013  RH  083%=      5-min Rain = 0
KWE2 142259Z 15012KT 04/01 A3018 RMK A01 T00390013  RH  083%=      5-min Rain = 0
KWE2 142300Z 16013KT 04/01 A3018 RMK A01 T00400012  RH  082%=      5-min Rain = 0
KWE2 142301Z 16011KT 04/01 A3018 RMK A01 T00390011  RH  082%=      5-min Rain = 0
KWE2 142302Z 16010KT 04/01 A3018 RMK A01 T00380011  RH  083%=      5-min Rain = 0
KWE2 142303Z 16010KT 04/01 A3018 RMK A01 T00380012  RH  083%=      5-min Rain = 0
KWE2 142304Z 16011KT 04/01 A3018 RMK A01 T00380012  RH  083%=      5-min Rain = 0
KWE2 142305Z 15013KT 04/01 A3018 RMK A01 T00390012  RH  083%=      5-min Rain = 0
KWE2 142306Z 15013KT 04/01 A3018 RMK A01 T00400012  RH  082%=      5-min Rain = 0
KWE2 142307Z 16011KT 04/01 A3018 RMK A01 T00400011  RH  082%=      5-min Rain = 0
KWE2 142308Z 16010KT 04/01 A3018 RMK A01 T00400012  RH  082%=      5-min Rain = 0
KWE2 142309Z 15010KT 04/01 A3018 RMK A01 T00400012  RH  082%=      5-min Rain = 0
KWE2 142310Z 16012KT 04/01 A3018 RMK A01 T00390011  RH  082%=      5-min Rain = 0
KWE2 142311Z 16012KT 04/01 A3018 RMK A01 T00380010  RH  082%=      5-min Rain = 0
KWE2 142312Z 17014KT 04/01 A3018 RMK A01 T00380011  RH  083%=      5-min Rain = 0
KWE2 142313Z 17013KT 04/01 A3018 RMK A01 T00390012  RH  083%=      5-min Rain = 0
KWE2 142314Z 17011KT 04/01 A3018 RMK A01 T00390013  RH  083%=      5-min Rain = 0
KWE2 142315Z 17011KT 04/01 A3018 RMK A01 T00400014  RH  083%=      5-min Rain = 0
KWE2 142316Z 17012KT 04/01 A3017 RMK A01 T00400013  RH  083%=      5-min Rain = 0
KWE2 142317Z 17009KT 04/01 A3017 RMK A01 T00400014  RH  083%=      5-min Rain = 0
KWE2 142318Z 17010KT 04/02 A3017 RMK A01 T00400015  RH  084%=      5-min Rain = 0
KWE2 142319Z 18012KT 04/02 A3017 RMK A01 T00410015  RH  083%=      5-min Rain = 0
KWE2 142320Z 17012KT 04/02 A3017 RMK A01 T00420015  RH  083%=      5-min Rain = 0
KWE2 142321Z 17011KT 04/02 A3017 RMK A01 T00420015  RH  083%=      5-min Rain = 0
KWE2 142322Z 17012KT 04/02 A3017 RMK A01 T00420015  RH  082%=      5-min Rain = 0
KWE2 142323Z 17011KT 04/01 A3017 RMK A01 T00430014  RH  082%=      5-min Rain = 0
KWE2 142324Z 17011KT 04/01 A3017 RMK A01 T00420014  RH  082%=      5-min Rain = 0
KWE2 142325Z 17011KT 04/02 A3017 RMK A01 T00430016  RH  083%=      5-min Rain = 0
KWE2 142326Z 17010KT 04/02 A3018 RMK A01 T00430015  RH  082%=      5-min Rain = 0
KWE2 142327Z 18010KT 04/02 A3018 RMK A01 T00430016  RH  083%=      5-min Rain = 0
KWE2 142328Z 18011KT 04/02 A3018 RMK A01 T00440017  RH  083%=      5-min Rain = 0
KWE2 142329Z 17010KT 04/02 A3018 RMK A01 T00440016  RH  082%=      5-min Rain = 0
KWE2 142330Z 17010KT 04/01 A3018 RMK A01 T00440014  RH  081%=      5-min Rain = 0
KWE2 142331Z 16010KT 04/01 A3018 RMK A01 T00440014  RH  081%=      5-min Rain = 0
KWE2 142332Z 16010KT 05/01 A3018 RMK A01 T00450014  RH  080%=      5-min Rain = 0
KWE2 142333Z 16008KT 05/01 A3018 RMK A01 T00450012  RH  079%=      5-min Rain = 0
KWE2 142334Z 16009KT 05/01 A3018 RMK A01 T00460012  RH  079%=      5-min Rain = 0
KWE2 142335Z 17009KT 05/01 A3018 RMK A01 T00460014  RH  079%=      5-min Rain = 0
KWE2 142336Z 17010KT 05/02 A3018 RMK A01 T00480015  RH  080%=      5-min Rain = 0
KWE2 142337Z 17010KT 05/02 A3018 RMK A01 T00470015  RH  080%=      5-min Rain = 0
KWE2 142338Z 16012KT 05/02 A3018 RMK A01 T00470015  RH  080%=      5-min Rain = 0
KWE2 142339Z 17012KT 05/02 A3018 RMK A01 T00470015  RH  080%=      5-min Rain = 0
KWE2 142340Z 16011KT 05/02 A3018 RMK A01 T00470015  RH  080%=      5-min Rain = 0
KWE2 142341Z 16010KT 05/01 A3017 RMK A01 T00480014  RH  079%=      5-min Rain = 0
KWE2 142342Z 16011KT 05/01 A3017 RMK A01 T00480014  RH  079%=      5-min Rain = 0
KWE2 142343Z 16011KT 05/01 A3017 RMK A01 T00480013  RH  078%=      5-min Rain = 0
KWE2 142344Z 17010KT 05/01 A3017 RMK A01 T00480013  RH  078%=      5-min Rain = 0
KWE2 142345Z 16009KT 05/02 A3017 RMK A01 T00480016  RH  079%=      5-min Rain = 0
KWE2 142346Z 16011KT 05/02 A3017 RMK A01 T00490015  RH  079%=      5-min Rain = 0
KWE2 142347Z 16011KT 05/01 A3017 RMK A01 T00490014  RH  078%=      5-min Rain = 0
KWE2 142348Z 16010KT 05/01 A3017 RMK A01 T00490013  RH  077%=      5-min Rain = 0
KWE2 142349Z 16010KT 05/01 A3017 RMK A01 T00490013  RH  077%=      5-min Rain = 0
KWE2 142350Z 16008KT 05/02 A3017 RMK A01 T00500015  RH  078%=      5-min Rain = 0
KWE2 142351Z 16009KT 05/02 A3017 RMK A01 T00500016  RH  078%=      5-min Rain = 0
KWE2 142352Z 16011KT 05/02 A3017 RMK A01 T00510015  RH  078%=      5-min Rain = 0
KWE2 142353Z 16011KT 05/02 A3016 RMK A01 T00510015  RH  077%=      5-min Rain = 0
KWE2 142354Z 16012KT 05/02 A3016 RMK A01 T00520015  RH  077%=      5-min Rain = 0
KWE2 142355Z 16012KT 05/02 A3016 RMK A01 T00520015  RH  077%=      5-min Rain = 0
KWE2 142356Z 17010KT 05/02 A3016 RMK A01 T00520016  RH  077%=      5-min Rain = 0
KWE2 142357Z 16011KT 05/02 A3016 RMK A01 T00520018  RH  078%=      5-min Rain = 0
KWE2 142358Z 16010KT 05/02 A3016 RMK A01 T00520017  RH  078%=      5-min Rain = 0
KWE2 142359Z 17011KT 05/02 A3016 RMK A01 T00520016  RH  077%=      5-min Rain = 0
KWE2 150000Z 17012KT 05/02 A3016 RMK A01 T00530017  RH  077%=      5-min Rain = 0
KWE2 150001Z 17012KT 05/02 A3016 RMK A01 T00530017  RH  078%=      5-min Rain = 0
KWE2 150002Z 16010KT 05/02 A3016 RMK A01 T00530017  RH  078%=      5-min Rain = 0
KWE2 150003Z 16010KT 05/02 A3016 RMK A01 T00530018  RH  078%=      5-min Rain = 0
KWE2 150004Z 16009KT 05/02 A3016 RMK A01 T00540018  RH  078%=      5-min Rain = 0
KWE2 150005Z 16010KT 05/02 A3016 RMK A01 T00530018  RH  078%=      5-min Rain = 0
KWE2 150006Z 16009KT 05/02 A3016 RMK A01 T00540018  RH  078%=      5-min Rain = 0
KWE2 150007Z 17010KT 05/02 A3016 RMK A01 T00530018  RH  078%=      5-min Rain = 0
KWE2 150008Z 16011KT 05/02 A3016 RMK A01 T00540018  RH  078%=      5-min Rain = 0
KWE2 150009Z 16010KT 05/02 A3016 RMK A01 T00530018  RH  078%=      5-min Rain = 0
KWE2 150010Z 17010KT 05/02 A3016 RMK A01 T00530019  RH  078%=      5-min Rain = 0
KWE2 150011Z 17009KT 05/02 A3016 RMK A01 T00520019  RH  079%=      5-min Rain = 0
KWE2 150012Z 17009KT 05/02 A3016 RMK A01 T00520019  RH  079%=      5-min Rain = 0
KWE2 150013Z 17009KT 05/02 A3016 RMK A01 T00520019  RH  080%=      5-min Rain = 0
KWE2 150014Z 17009KT 05/02 A3016 RMK A01 T00510019  RH  080%=      5-min Rain = 0
KWE2 150015Z 16009KT 05/02 A3016 RMK A01 T00500019  RH  080%=      5-min Rain = 0
KWE2 150016Z 16009KT 05/02 A3016 RMK A01 T00500019  RH  080%=      5-min Rain = 0
KWE2 150017Z 16009KT 05/02 A3016 RMK A01 T00500019  RH  080%=      5-min Rain = 0
KWE2 150018Z 16009KT 05/02 A3015 RMK A01 T00500019  RH  081%=      5-min Rain = 0
KWE2 150019Z 16008KT 05/02 A3015 RMK A01 T00490019  RH  081%=      5-min Rain = 0
KWE2 150020Z 16008KT 05/02 A3015 RMK A01 T00480018  RH  081%=      5-min Rain = 0
KWE2 150021Z 16007KT 05/02 A3015 RMK A01 T00480018  RH  081%=      5-min Rain = 0
KWE2 150022Z 16007KT 05/02 A3016 RMK A01 T00470018  RH  082%=      5-min Rain = 0
KWE2 150023Z 16007KT 05/02 A3016 RMK A01 T00470019  RH  082%=      5-min Rain = 0
KWE2 150024Z 16007KT 05/02 A3016 RMK A01 T00460019  RH  082%=      5-min Rain = 0
KWE2 150025Z 16007KT 05/02 A3016 RMK A01 T00450018  RH  083%=      5-min Rain = 0
KWE2 150026Z 16006KT 05/02 A3016 RMK A01 T00450018  RH  083%=      5-min Rain = 0
KWE2 150027Z 16006KT 04/02 A3016 RMK A01 T00440017  RH  083%=      5-min Rain = 0
KWE2 150028Z 16006KT 04/02 A3016 RMK A01 T00440017  RH  083%=      5-min Rain = 0
KWE2 150029Z 17006KT 04/02 A3016 RMK A01 T00440017  RH  083%=      5-min Rain = 0
KWE2 150030Z 17006KT 04/02 A3016 RMK A01 T00430018  RH  084%=      5-min Rain = 0
KWE2 150031Z 17006KT 04/02 A3016 RMK A01 T00420019  RH  085%=      5-min Rain = 0
KWE2 150032Z 17006KT 04/02 A3016 RMK A01 T00420019  RH  085%=      5-min Rain = 0
KWE2 150033Z 17005KT 04/02 A3016 RMK A01 T00420019  RH  085%=      5-min Rain = 0
KWE2 150034Z 17007KT 04/02 A3016 RMK A01 T00420019  RH  085%=      5-min Rain = 0
KWE2 150035Z 17007KT 04/02 A3016 RMK A01 T00410019  RH  085%=      5-min Rain = 0
KWE2 150036Z 17007KT 04/02 A3016 RMK A01 T00410019  RH  085%=      5-min Rain = 0
KWE2 150037Z 17007KT 04/02 A3016 RMK A01 T00400019  RH  086%=      5-min Rain = 0
KWE2 150038Z 17007KT 04/02 A3016 RMK A01 T00390019  RH  086%=      5-min Rain = 0
KWE2 150039Z 17007KT 04/02 A3015 RMK A01 T00390018  RH  086%=      5-min Rain = 0
KWE2 150040Z 17007KT 04/02 A3015 RMK A01 T00380018  RH  087%=      5-min Rain = 0
KWE2 150041Z 17007KT 04/02 A3015 RMK A01 T00370018  RH  087%=      5-min Rain = 0
KWE2 150042Z 17006KT 04/02 A3015 RMK A01 T00360018  RH  088%=      5-min Rain = 0
KWE2 150043Z 17007KT 04/02 A3015 RMK A01 T00360018  RH  088%=      5-min Rain = 0
KWE2 150044Z 17006KT 04/02 A3015 RMK A01 T00350018  RH  088%=      5-min Rain = 0
KWE2 150045Z 17006KT 04/02 A3015 RMK A01 T00350018  RH  089%=      5-min Rain = 0
KWE2 150046Z 17006KT 04/02 A3015 RMK A01 T00350018  RH  089%=      5-min Rain = 0
KWE2 150047Z 17006KT 03/02 A3015 RMK A01 T00340018  RH  089%=      5-min Rain = 0
KWE2 150048Z 17006KT 03/02 A3015 RMK A01 T00340017  RH  089%=      5-min Rain = 0
KWE2 150049Z 17006KT 03/02 A3015 RMK A01 T00330017  RH  089%=      5-min Rain = 0
KWE2 150050Z 17005KT 03/02 A3015 RMK A01 T00330017  RH  090%=      5-min Rain = 0
KWE2 150051Z 17005KT 03/02 A3015 RMK A01 T00320017  RH  090%=      5-min Rain = 0
KWE2 150052Z 17005KT 03/02 A3015 RMK A01 T00320017  RH  090%=      5-min Rain = 0
KWE2 150053Z 17005KT 03/02 A3015 RMK A01 T00310017  RH  090%=      5-min Rain = 0
KWE2 150054Z 16005KT 03/02 A3015 RMK A01 T00310016  RH  090%=      5-min Rain = 0
KWE2 150055Z 16006KT 03/02 A3015 RMK A01 T00300015  RH  090%=      5-min Rain = 0
KWE2 150056Z 16006KT 03/01 A3015 RMK A01 T00300014  RH  089%=      5-min Rain = 0
KWE2 150057Z 16006KT 03/01 A3015 RMK A01 T00300013  RH  088%=      5-min Rain = 0
KWE2 150058Z 16006KT 03/01 A3015 RMK A01 T00290010  RH  087%=      5-min Rain = 0
KWE2 150059Z 16006KT 03/01 A3015 RMK A01 T00280007  RH  086%=      5-min Rain = 0
KWE2 150100Z 15006KT 03/01 A3015 RMK A01 T00250005  RH  086%=      5-min Rain = 0
KWE2 150101Z 15006KT 03/01 A3015 RMK A01 T00250007  RH  088%=      5-min Rain = 0
KWE2 150102Z 15006KT 03/01 A3015 RMK A01 T00250009  RH  089%=      5-min Rain = 0
KWE2 150103Z 15006KT 03/01 A3015 RMK A01 T00250008  RH  089%=      5-min Rain = 0
KWE2 150104Z 15006KT 02/01 A3015 RMK A01 T00240008  RH  089%=      5-min Rain = 0
KWE2 150105Z 15006KT 02/01 A3015 RMK A01 T00240009  RH  090%=      5-min Rain = 0
KWE2 150106Z 15006KT 02/01 A3015 RMK A01 T00240009  RH  090%=      5-min Rain = 0
KWE2 150107Z 15006KT 02/01 A3015 RMK A01 T00240009  RH  090%=      5-min Rain = 0
KWE2 150108Z 16006KT 02/01 A3015 RMK A01 T00240009  RH  090%=      5-min Rain = 0
KWE2 150109Z 16006KT 02/01 A3015 RMK A01 T00230009  RH  090%=      5-min Rain = 0
KWE2 150110Z 16006KT 02/01 A3015 RMK A01 T00230010  RH  091%=      5-min Rain = 0
KWE2 150111Z 16007KT 02/01 A3015 RMK A01 T00230012  RH  092%=      5-min Rain = 0
KWE2 150112Z 15007KT 02/01 A3015 RMK A01 T00230010  RH  091%=      5-min Rain = 0
KWE2 150113Z 15007KT 02/01 A3015 RMK A01 T00230009  RH  091%=      5-min Rain = 0
KWE2 150114Z 15007KT 02/01 A3015 RMK A01 T00220009  RH  091%=      5-min Rain = 0
KWE2 150115Z 15007KT 02/01 A3015 RMK A01 T00220009  RH  091%=      5-min Rain = 0
KWE2 150116Z 15007KT 02/01 A3015 RMK A01 T00220009  RH  092%=      5-min Rain = 0
KWE2 150117Z 15008KT 02/01 A3015 RMK A01 T00210009  RH  092%=      5-min Rain = 0
KWE2 150118Z 15008KT 02/01 A3015 RMK A01 T00200009  RH  092%=      5-min Rain = 0
KWE2 150119Z 15008KT 02/01 A3015 RMK A01 T00200010  RH  093%=      5-min Rain = 0
KWE2 150120Z 15008KT 02/01 A3015 RMK A01 T00210012  RH  094%=      5-min Rain = 0
KWE2 150121Z 15008KT 02/01 A3015 RMK A01 T00220013  RH  094%=      5-min Rain = 0
KWE2 150122Z 15008KT 02/01 A3015 RMK A01 T00230014  RH  094%=      5-min Rain = 0
KWE2 150123Z 14008KT 02/01 A3015 RMK A01 T00230014  RH  094%=      5-min Rain = 0
KWE2 150124Z 14008KT 02/01 A3015 RMK A01 T00240014  RH  094%=      5-min Rain = 0
KWE2 150125Z 14008KT 02/01 A3015 RMK A01 T00240014  RH  093%=      5-min Rain = 0
KWE2 150126Z 14007KT 03/01 A3015 RMK A01 T00250013  RH  092%=      5-min Rain = 0
KWE2 150127Z 14007KT 02/01 A3015 RMK A01 T00240013  RH  092%=      5-min Rain = 0
KWE2 150128Z 13006KT 02/01 A3015 RMK A01 T00240012  RH  092%=      5-min Rain = 0
KWE2 150129Z 13006KT 02/01 A3015 RMK A01 T00220008  RH  090%=      5-min Rain = 0
KWE2 150130Z 13006KT 02/01 A3015 RMK A01 T00200006  RH  091%=      5-min Rain = 0
KWE2 150131Z 14005KT 02/01 A3015 RMK A01 T00180007  RH  092%=      5-min Rain = 0
KWE2 150132Z 14005KT 02/01 A3015 RMK A01 T00170009  RH  094%=      5-min Rain = 0
KWE2 150133Z 14005KT 02/01 A3015 RMK A01 T00180012  RH  096%=      5-min Rain = 0
KWE2 150134Z 14006KT 02/01 A3015 RMK A01 T00190014  RH  097%=      5-min Rain = 0
KWE2 150135Z 14005KT 02/02 A3015 RMK A01 T00210017  RH  097%=      5-min Rain = 0
KWE2 150136Z 13004KT 02/02 A3015 RMK A01 T00220016  RH  096%=      5-min Rain = 0
KWE2 150137Z 13003KT 02/02 A3015 RMK A01 T00220015  RH  095%=      5-min Rain = 0
KWE2 150138Z 13003KT 02/01 A3015 RMK A01 T00220013  RH  094%=      5-min Rain = 0
KWE2 150139Z 12002KT 02/01 A3015 RMK A01 T00220013  RH  094%=      5-min Rain = 0
KWE2 150140Z 10000KT 02/01 A3015 RMK A01 T00220014  RH  095%=      5-min Rain = 0
KWE2 150141Z 01000KT 02/02 A3015 RMK A01 T00220015  RH  095%=      5-min Rain = 0
KWE2 150142Z 03001KT 02/01 A3016 RMK A01 T00220014  RH  095%=      5-min Rain = 0
KWE2 150143Z 03002KT 02/02 A3016 RMK A01 T00220015  RH  095%=      5-min Rain = 0
KWE2 150144Z 03001KT 02/02 A3016 RMK A01 T00230017  RH  096%=      5-min Rain = 0
KWE2 150145Z 35001KT 02/02 A3016 RMK A01 T00240017  RH  095%=      5-min Rain = 0
KWE2 150146Z 01001KT 02/01 A3016 RMK A01 T00230012  RH  093%=      5-min Rain = 0
KWE2 150147Z 34001KT 02/01 A3016 RMK A01 T00210011  RH  093%=      5-min Rain = 0
KWE2 150148Z 33001KT 02/01 A3016 RMK A01 T00190012  RH  095%=      5-min Rain = 0
KWE2 150149Z 01000KT 02/01 A3016 RMK A01 T00190013  RH  096%=      5-min Rain = 0
KWE2 150150Z 04001KT 02/02 A3016 RMK A01 T00190017  RH  098%=      5-min Rain = 0
KWE2 150151Z 04001KT 02/02 A3016 RMK A01 T00220021  RH  100%=      5-min Rain = 0
KWE2 150152Z 06001KT 02/02 A3016 RMK A01 T00230020  RH  098%=      5-min Rain = 0
KWE2 150153Z 10000KT 02/02 A3016 RMK A01 T00230018  RH  096%=      5-min Rain = 0
KWE2 150154Z 10001KT 02/02 A3016 RMK A01 T00240018  RH  096%=      5-min Rain = 0
KWE2 150155Z 09001KT 02/02 A3016 RMK A01 T00240016  RH  094%=      5-min Rain = 0
KWE2 150156Z 12001KT 02/02 A3016 RMK A01 T00240015  RH  094%=      5-min Rain = 0
KWE2 150157Z 11001KT 02/01 A3016 RMK A01 T00230014  RH  094%=      5-min Rain = 0
KWE2 150158Z 13001KT 02/01 A3016 RMK A01 T00220012  RH  093%=      5-min Rain = 0
KWE2 150159Z 13002KT 02/01 A3016 RMK A01 T00210014  RH  095%=      5-min Rain = 0
KWE2 150200Z 14002KT 02/01 A3016 RMK A01 T00210013  RH  094%=      5-min Rain = 0
KWE2 150201Z 14003KT 02/01 A3016 RMK A01 T00200012  RH  094%=      5-min Rain = 0
KWE2 150202Z 15003KT 02/01 A3016 RMK A01 T00190010  RH  094%=      5-min Rain = 0
KWE2 150203Z 15004KT 02/01 A3016 RMK A01 T00190011  RH  095%=      5-min Rain = 0
KWE2 150204Z 15005KT 02/01 A3015 RMK A01 T00190013  RH  096%=      5-min Rain = 0
KWE2 150205Z 14005KT 02/02 A3015 RMK A01 T00190016  RH  098%=      5-min Rain = 0
KWE2 150206Z 14006KT 02/02 A3015 RMK A01 T00210017  RH  097%=      5-min Rain = 0
KWE2 150207Z 14005KT 02/02 A3015 RMK A01 T00210016  RH  096%=      5-min Rain = 0
KWE2 150208Z 14005KT 02/02 A3015 RMK A01 T00210015  RH  096%=      5-min Rain = 0
KWE2 150209Z 14006KT 02/02 A3015 RMK A01 T00210015  RH  095%=      5-min Rain = 0
KWE2 150210Z 15007KT 02/02 A3015 RMK A01 T00210015  RH  096%=      5-min Rain = 0
KWE2 150211Z 15007KT 02/02 A3015 RMK A01 T00220018  RH  097%=      5-min Rain = 0
KWE2 150212Z 15008KT 03/03 A3016 RMK A01 T00270026  RH  100%=      5-min Rain = 0
KWE2 150213Z 15008KT 03/03 A3016 RMK A01 T00320032  RH  100%=      5-min Rain = 0
KWE2 150214Z 16009KT 04/03 A3016 RMK A01 T00380034  RH  097%=      5-min Rain = 0
KWE2 150215Z 16008KT 04/03 A3016 RMK A01 T00420031  RH  093%=      5-min Rain = 0
KWE2 150216Z 16009KT 04/03 A3015 RMK A01 T00430027  RH  090%=      5-min Rain = 0
KWE2 150217Z 16010KT 04/03 A3015 RMK A01 T00430027  RH  089%=      5-min Rain = 0
KWE2 150218Z 16009KT 04/03 A3015 RMK A01 T00440026  RH  088%=      5-min Rain = 0
KWE2 150219Z 16009KT 05/03 A3015 RMK A01 T00450027  RH  088%=      5-min Rain = 0
KWE2 150220Z 16009KT 05/03 A3015 RMK A01 T00460027  RH  087%=      5-min Rain = 0
KWE2 150221Z 15009KT 05/03 A3015 RMK A01 T00470026  RH  087%=      5-min Rain = 0
KWE2 150222Z 15009KT 05/03 A3015 RMK A01 T00460026  RH  086%=      5-min Rain = 0
KWE2 150223Z 16009KT 05/03 A3015 RMK A01 T00460026  RH  086%=      5-min Rain = 0
KWE2 150224Z 16009KT 05/03 A3015 RMK A01 T00470025  RH  086%=      5-min Rain = 0
KWE2 150225Z 16009KT 05/03 A3016 RMK A01 T00470026  RH  086%=      5-min Rain = 0
KWE2 150226Z 16010KT 05/03 A3016 RMK A01 T00470025  RH  086%=      5-min Rain = 0
KWE2 150227Z 16010KT 05/03 A3016 RMK A01 T00470026  RH  086%=      5-min Rain = 0
KWE2 150228Z 16010KT 05/03 A3016 RMK A01 T00470026  RH  086%=      5-min Rain = 0
KWE2 150229Z 16011KT 05/03 A3016 RMK A01 T00470026  RH  086%=      5-min Rain = 0
KWE2 150230Z 16010KT 05/03 A3016 RMK A01 T00480026  RH  086%=      5-min Rain = 0
KWE2 150231Z 16011KT 05/03 A3016 RMK A01 T00480026  RH  086%=      5-min Rain = 0
KWE2 150232Z 16010KT 05/03 A3016 RMK A01 T00480026  RH  086%=      5-min Rain = 0
KWE2 150233Z 16010KT 05/03 A3016 RMK A01 T00480026  RH  086%=      5-min Rain = 0
KWE2 150234Z 16009KT 05/03 A3016 RMK A01 T00480026  RH  086%=      5-min Rain = 0
KWE2 150235Z 16010KT 05/03 A3016 RMK A01 T00470026  RH  086%=      5-min Rain = 0
KWE2 150236Z 16009KT 05/03 A3016 RMK A01 T00470025  RH  086%=      5-min Rain = 0
KWE2 150237Z 16010KT 05/03 A3016 RMK A01 T00460026  RH  086%=      5-min Rain = 0
KWE2 150238Z 16009KT 05/03 A3016 RMK A01 T00460026  RH  087%=      5-min Rain = 0
KWE2 150239Z 16009KT 05/03 A3016 RMK A01 T00450026  RH  087%=      5-min Rain = 0
KWE2 150240Z 16008KT 05/03 A3016 RMK A01 T00450026  RH  087%=      5-min Rain = 0
KWE2 150241Z 16009KT 05/03 A3016 RMK A01 T00450026  RH  087%=      5-min Rain = 0
KWE2 150242Z 16008KT 05/03 A3016 RMK A01 T00450025  RH  087%=      5-min Rain = 0
KWE2 150243Z 17008KT 04/03 A3016 RMK A01 T00440025  RH  088%=      5-min Rain = 0
KWE2 150244Z 17007KT 04/03 A3016 RMK A01 T00430025  RH  088%=      5-min Rain = 0
KWE2 150245Z 17008KT 04/03 A3016 RMK A01 T00420025  RH  089%=      5-min Rain = 0
KWE2 150246Z 17007KT 04/03 A3016 RMK A01 T00420025  RH  089%=      5-min Rain = 0
KWE2 150247Z 17006KT 04/03 A3016 RMK A01 T00410025  RH  089%=      5-min Rain = 0
KWE2 150248Z 17007KT 04/02 A3016 RMK A01 T00400024  RH  089%=      5-min Rain = 0
KWE2 150249Z 17006KT 04/02 A3016 RMK A01 T00400024  RH  090%=      5-min Rain = 0
KWE2 150250Z 17006KT 04/02 A3016 RMK A01 T00390024  RH  090%=      5-min Rain = 0
KWE2 150251Z 17005KT 04/03 A3016 RMK A01 T00390025  RH  090%=      5-min Rain = 0
KWE2 150252Z 16005KT 04/02 A3016 RMK A01 T00380024  RH  091%=      5-min Rain = 0
KWE2 150253Z 17005KT 04/02 A3016 RMK A01 T00380024  RH  091%=      5-min Rain = 0
KWE2 150254Z 16004KT 04/02 A3016 RMK A01 T00370023  RH  091%=      5-min Rain = 0
KWE2 150255Z 16003KT 04/02 A3016 RMK A01 T00360024  RH  092%=      5-min Rain = 0
KWE2 150256Z 16003KT 04/02 A3016 RMK A01 T00360024  RH  092%=      5-min Rain = 0
KWE2 150257Z 15002KT 04/02 A3016 RMK A01 T00350024  RH  092%=      5-min Rain = 0
KWE2 150258Z 15002KT 04/02 A3017 RMK A01 T00350024  RH  092%=      5-min Rain = 0
KWE2 150259Z 16001KT 04/02 A3017 RMK A01 T00350024  RH  093%=      5-min Rain = 0
KWE2 150300Z 16001KT 03/03 A3017 RMK A01 T00340025  RH  094%=      5-min Rain = 0
KWE2 150301Z 16001KT 03/03 A3017 RMK A01 T00340026  RH  094%=      5-min Rain = 0
KWE2 150302Z 16002KT 04/03 A3017 RMK A01 T00350027  RH  095%=      5-min Rain = 0
KWE2 150303Z 16002KT 04/03 A3017 RMK A01 T00350028  RH  095%=      5-min Rain = 0
KWE2 150304Z 16001KT 04/03 A3017 RMK A01 T00360029  RH  095%=      5-min Rain = 0
KWE2 150305Z 15001KT 04/03 A3017 RMK A01 T00370028  RH  094%=      5-min Rain = 0
KWE2 150306Z 15002KT 04/03 A3017 RMK A01 T00380027  RH  093%=      5-min Rain = 0
KWE2 150307Z 16002KT 04/03 A3017 RMK A01 T00370026  RH  093%=      5-min Rain = 0
KWE2 150308Z 16002KT 04/03 A3017 RMK A01 T00370025  RH  092%=      5-min Rain = 0
KWE2 150309Z 16002KT 04/02 A3017 RMK A01 T00360024  RH  092%=      5-min Rain = 0
KWE2 150310Z 15002KT 04/03 A3017 RMK A01 T00360025  RH  093%=      5-min Rain = 0
KWE2 150311Z 16002KT 04/03 A3017 RMK A01 T00360026  RH  093%=      5-min Rain = 0
KWE2 150312Z 16002KT 04/03 A3017 RMK A01 T00360026  RH  093%=      5-min Rain = 0
KWE2 150313Z 16002KT 04/03 A3017 RMK A01 T00360025  RH  093%=      5-min Rain = 0
KWE2 150314Z 16002KT 04/02 A3017 RMK A01 T00350022  RH  091%=      5-min Rain = 0
KWE2 150315Z 16002KT 03/02 A3017 RMK A01 T00340018  RH  090%=      5-min Rain = 0
KWE2 150316Z 16002KT 03/02 A3017 RMK A01 T00320018  RH  091%=      5-min Rain = 0
KWE2 150317Z 16002KT 03/02 A3017 RMK A01 T00310021  RH  093%=      5-min Rain = 0
KWE2 150318Z 17002KT 03/02 A3017 RMK A01 T00300022  RH  094%=      5-min Rain = 0
KWE2 150319Z 16002KT 03/02 A3017 RMK A01 T00300021  RH  094%=      5-min Rain = 0
KWE2 150320Z 16002KT 03/02 A3017 RMK A01 T00290024  RH  096%=      5-min Rain = 0
KWE2 150321Z 17002KT 03/02 A3017 RMK A01 T00290024  RH  096%=      5-min Rain = 0
KWE2 150322Z 18002KT 03/02 A3017 RMK A01 T00290021  RH  095%=      5-min Rain = 0
KWE2 150323Z 18001KT 03/02 A3017 RMK A01 T00280023  RH  097%=      5-min Rain = 0
KWE2 150324Z 18001KT 03/02 A3017 RMK A01 T00280022  RH  096%=      5-min Rain = 0
KWE2 150325Z 20002KT 03/02 A3017 RMK A01 T00270022  RH  097%=      5-min Rain = 0
KWE2 150326Z 20001KT 03/03 A3017 RMK A01 T00270027  RH  100%=      5-min Rain = 0
KWE2 150327Z 22000KT 03/03 A3017 RMK A01 T00280028  RH  100%=      5-min Rain = 0
KWE2 150328Z 20001KT 03/03 A3017 RMK A01 T00290028  RH  100%=      5-min Rain = 0
KWE2 150329Z 19001KT 03/03 A3017 RMK A01 T00300030  RH  100%=      5-min Rain = 0
KWE2 150330Z 19001KT 03/03 A3017 RMK A01 T00310030  RH  100%=      5-min Rain = 0
KWE2 150331Z 19002KT 03/03 A3017 RMK A01 T00320031  RH  100%=      5-min Rain = 0
KWE2 150332Z 18003KT 03/03 A3017 RMK A01 T00330031  RH  099%=      5-min Rain = 0
KWE2 150333Z 17003KT 03/03 A3017 RMK A01 T00340031  RH  098%=      5-min Rain = 0
KWE2 150334Z 17003KT 04/03 A3017 RMK A01 T00350029  RH  096%=      5-min Rain = 0
KWE2 150335Z 17004KT 04/03 A3017 RMK A01 T00360028  RH  095%=      5-min Rain = 0
KWE2 150336Z 17004KT 04/03 A3017 RMK A01 T00360028  RH  094%=      5-min Rain = 0
KWE2 150337Z 16004KT 04/03 A3017 RMK A01 T00360025  RH  093%=      5-min Rain = 0
KWE2 150338Z 17004KT 04/03 A3017 RMK A01 T00360025  RH  093%=      5-min Rain = 0
KWE2 150339Z 17004KT 04/03 A3017 RMK A01 T00360025  RH  092%=      5-min Rain = 0
KWE2 150340Z 17005KT 04/02 A3017 RMK A01 T00360023  RH  091%=      5-min Rain = 0
KWE2 150341Z 17004KT 04/02 A3017 RMK A01 T00350023  RH  092%=      5-min Rain = 0
KWE2 150342Z 17005KT 04/02 A3017 RMK A01 T00350023  RH  092%=      5-min Rain = 0
KWE2 150343Z 17005KT 03/02 A3017 RMK A01 T00340022  RH  092%=      5-min Rain = 0
KWE2 150344Z 17005KT 03/02 A3017 RMK A01 T00330022  RH  092%=      5-min Rain = 0
KWE2 150345Z 18005KT 03/02 A3017 RMK A01 T00330023  RH  093%=      5-min Rain = 0
KWE2 150346Z 17005KT 03/02 A3017 RMK A01 T00330023  RH  093%=      5-min Rain = 0
KWE2 150347Z 17005KT 03/02 A3017 RMK A01 T00320021  RH  092%=      5-min Rain = 0
KWE2 150348Z 17006KT 03/02 A3017 RMK A01 T00320021  RH  092%=      5-min Rain = 0
KWE2 150349Z 17006KT 03/02 A3017 RMK A01 T00310022  RH  093%=      5-min Rain = 0
KWE2 150350Z 17007KT 03/02 A3017 RMK A01 T00320023  RH  094%=      5-min Rain = 0
KWE2 150351Z 17008KT 03/02 A3017 RMK A01 T00320023  RH  094%=      5-min Rain = 0
KWE2 150352Z 17008KT 03/02 A3017 RMK A01 T00330024  RH  094%=      5-min Rain = 0
KWE2 150353Z 17008KT 03/02 A3017 RMK A01 T00330023  RH  093%=      5-min Rain = 0
KWE2 150354Z 17008KT 03/02 A3017 RMK A01 T00330023  RH  093%=      5-min Rain = 0
KWE2 150355Z 17009KT 03/02 A3017 RMK A01 T00330023  RH  094%=      5-min Rain = 0
KWE2 150356Z 17009KT 03/03 A3017 RMK A01 T00330025  RH  095%=      5-min Rain = 0
KWE2 150357Z 17009KT 04/03 A3017 RMK A01 T00350026  RH  094%=      5-min Rain = 0
KWE2 150358Z 17009KT 04/03 A3017 RMK A01 T00350025  RH  093%=      5-min Rain = 0
KWE2 150359Z 17009KT 04/02 A3017 RMK A01 T00350024  RH  093%=      5-min Rain = 0
KWE2 150400Z 17009KT 04/03 A3017 RMK A01 T00350025  RH  093%=      5-min Rain = 0
KWE2 150401Z 18009KT 03/03 A3017 RMK A01 T00340026  RH  094%=      5-min Rain = 0
KWE2 150402Z 18009KT 04/03 A3017 RMK A01 T00350026  RH  094%=      5-min Rain = 0
KWE2 150403Z 18009KT 04/03 A3017 RMK A01 T00350026  RH  094%=      5-min Rain = 0
KWE2 150404Z 18009KT 04/03 A3017 RMK A01 T00350025  RH  093%=      5-min Rain = 0
KWE2 150405Z 18009KT 04/03 A3017 RMK A01 T00350025  RH  094%=      5-min Rain = 0
KWE2 150406Z 18009KT 03/03 A3017 RMK A01 T00340026  RH  094%=      5-min Rain = 0
KWE2 150407Z 18009KT 04/03 A3017 RMK A01 T00350027  RH  094%=      5-min Rain = 0
KWE2 150408Z 18010KT 04/03 A3017 RMK A01 T00350027  RH  094%=      5-min Rain = 0
KWE2 150409Z 18010KT 04/03 A3017 RMK A01 T00350027  RH  094%=      5-min Rain = 0
KWE2 150410Z 17010KT 04/03 A3017 RMK A01 T00360027  RH  094%=      5-min Rain = 0
KWE2 150411Z 17010KT 04/03 A3017 RMK A01 T00360027  RH  094%=      5-min Rain = 0
KWE2 150412Z 18010KT 04/03 A3017 RMK A01 T00360027  RH  094%=      5-min Rain = 0
KWE2 150413Z 17010KT 04/03 A3017 RMK A01 T00350027  RH  094%=      5-min Rain = 0
KWE2 150414Z 18010KT 04/03 A3017 RMK A01 T00350027  RH  095%=      5-min Rain = 0
KWE2 150415Z 17011KT 04/03 A3017 RMK A01 T00350027  RH  095%=      5-min Rain = 0
KWE2 150416Z 17011KT 04/03 A3017 RMK A01 T00350028  RH  095%=      5-min Rain = 0
KWE2 150417Z 17011KT 04/03 A3017 RMK A01 T00350028  RH  095%=      5-min Rain = 0
KWE2 150418Z 17011KT 04/03 A3016 RMK A01 T00360028  RH  095%=      5-min Rain = 0
KWE2 150419Z 17011KT 04/03 A3016 RMK A01 T00360029  RH  095%=      5-min Rain = 0
KWE2 150420Z 17011KT 04/03 A3016 RMK A01 T00370028  RH  094%=      5-min Rain = 0
KWE2 150421Z 17011KT 04/03 A3016 RMK A01 T00370028  RH  094%=      5-min Rain = 0
KWE2 150422Z 17012KT 04/03 A3016 RMK A01 T00360028  RH  094%=      5-min Rain = 0
KWE2 150423Z 17011KT 04/03 A3016 RMK A01 T00360028  RH  095%=      5-min Rain = 0
KWE2 150424Z 17011KT 04/03 A3016 RMK A01 T00370029  RH  095%=      5-min Rain = 0
KWE2 150425Z 17011KT 04/03 A3016 RMK A01 T00370029  RH  095%=      5-min Rain = 0
KWE2 150426Z 17011KT 04/03 A3016 RMK A01 T00370029  RH  094%=      5-min Rain = 0
KWE2 150427Z 17011KT 04/03 A3016 RMK A01 T00370028  RH  094%=      5-min Rain = 0
KWE2 150428Z 17011KT 04/03 A3016 RMK A01 T00360028  RH  095%=      5-min Rain = 0
KWE2 150429Z 17011KT 04/03 A3016 RMK A01 T00360029  RH  095%=      5-min Rain = 0
KWE2 150430Z 17011KT 04/03 A3016 RMK A01 T00360029  RH  095%=      5-min Rain = 0
KWE2 150431Z 17010KT 04/03 A3016 RMK A01 T00360029  RH  095%=      5-min Rain = 0
KWE2 150432Z 17011KT 04/03 A3016 RMK A01 T00360029  RH  096%=      5-min Rain = 0
KWE2 150433Z 17011KT 04/03 A3016 RMK A01 T00360029  RH  096%=      5-min Rain = 0
KWE2 150434Z 17010KT 04/03 A3016 RMK A01 T00360029  RH  096%=      5-min Rain = 0
KWE2 150435Z 17010KT 04/03 A3016 RMK A01 T00360029  RH  096%=      5-min Rain = 0
KWE2 150436Z 17010KT 04/03 A3016 RMK A01 T00350029  RH  095%=      5-min Rain = 0
KWE2 150437Z 18010KT 04/03 A3016 RMK A01 T00350029  RH  096%=      5-min Rain = 0
KWE2 150438Z 17010KT 04/03 A3016 RMK A01 T00350029  RH  096%=      5-min Rain = 0
KWE2 150439Z 17010KT 03/03 A3016 RMK A01 T00340029  RH  096%=      5-min Rain = 0
KWE2 150440Z 18010KT 03/03 A3016 RMK A01 T00340029  RH  097%=      5-min Rain = 0
KWE2 150441Z 17010KT 03/03 A3016 RMK A01 T00340029  RH  097%=      5-min Rain = 0
KWE2 150442Z 17009KT 03/03 A3016 RMK A01 T00340029  RH  097%=      5-min Rain = 0
KWE2 150443Z 18009KT 03/03 A3016 RMK A01 T00330029  RH  097%=      5-min Rain = 0
KWE2 150444Z 18009KT 03/03 A3016 RMK A01 T00330030  RH  098%=      5-min Rain = 0
KWE2 150445Z 18009KT 03/03 A3016 RMK A01 T00330030  RH  098%=      5-min Rain = 0
KWE2 150446Z 18009KT 03/03 A3016 RMK A01 T00330030  RH  098%=      5-min Rain = 0
KWE2 150447Z 18009KT 03/03 A3016 RMK A01 T00320029  RH  098%=      5-min Rain = 0
KWE2 150448Z 18009KT 03/03 A3016 RMK A01 T00310029  RH  098%=      5-min Rain = 0
KWE2 150449Z 18008KT 03/03 A3016 RMK A01 T00310029  RH  099%=      5-min Rain = 0
KWE2 150450Z 18008KT 03/03 A3016 RMK A01 T00300029  RH  099%=      5-min Rain = 0
KWE2 150451Z 18008KT 03/03 A3016 RMK A01 T00300029  RH  100%=      5-min Rain = 0
KWE2 150452Z 18008KT 03/03 A3016 RMK A01 T00290029  RH  099%=      5-min Rain = 0
KWE2 150453Z 18008KT 03/03 A3016 RMK A01 T00290029  RH  100%=      5-min Rain = 0
KWE2 150454Z 18008KT 03/03 A3016 RMK A01 T00290029  RH  100%=      5-min Rain = 0
KWE2 150455Z 18008KT 03/03 A3016 RMK A01 T00290029  RH  100%=      5-min Rain = 0
KWE2 150456Z 18008KT 03/03 A3016 RMK A01 T00280028  RH  100%=      5-min Rain = 0
KWE2 150457Z 18008KT 03/03 A3016 RMK A01 T00280028  RH  100%=      5-min Rain = 0
KWE2 150458Z 18008KT 03/03 A3016 RMK A01 T00280028  RH  100%=      5-min Rain = 0
KWE2 150459Z 18008KT 03/03 A3016 RMK A01 T00280028  RH  100%=      5-min Rain = 0
KWE2 150500Z 18008KT 03/03 A3016 RMK A01 T00280028  RH  100%=      5-min Rain = 0
KWE2 150501Z 18008KT 03/03 A3016 RMK A01 T00270027  RH  100%=      5-min Rain = 0
KWE2 150502Z 18008KT 03/03 A3016 RMK A01 T00270027  RH  100%=      5-min Rain = 0
KWE2 150503Z 18008KT 03/03 A3016 RMK A01 T00270027  RH  100%=      5-min Rain = 0
KWE2 150504Z 18008KT 03/03 A3016 RMK A01 T00270027  RH  100%=      5-min Rain = 0
KWE2 150505Z 18008KT 03/03 A3016 RMK A01 T00270027  RH  100%=      5-min Rain = 0
KWE2 150506Z 18008KT 03/03 A3016 RMK A01 T00270027  RH  100%=      5-min Rain = 0
KWE2 150507Z 18009KT 03/03 A3016 RMK A01 T00270027  RH  100%=      5-min Rain = 0
KWE2 150508Z 18008KT 03/03 A3016 RMK A01 T00270027  RH  100%=      5-min Rain = 0
KWE2 150509Z 18008KT 03/03 A3016 RMK A01 T00270027  RH  100%=      5-min Rain = 0
KWE2 150510Z 18009KT 03/03 A3015 RMK A01 T00270027  RH  100%=      5-min Rain = 0
KWE2 150511Z 18009KT 03/03 A3015 RMK A01 T00280028  RH  100%=      5-min Rain = 0
KWE2 150512Z 18009KT 03/03 A3015 RMK A01 T00280028  RH  100%=      5-min Rain = 0
KWE2 150513Z 18010KT 03/03 A3015 RMK A01 T00280028  RH  100%=      5-min Rain = 0
KWE2 150514Z 18010KT 03/03 A3015 RMK A01 T00290029  RH  100%=      5-min Rain = 0
KWE2 150515Z 17010KT 03/03 A3015 RMK A01 T00300030  RH  100%=      5-min Rain = 0
KWE2 150516Z 18010KT 03/03 A3015 RMK A01 T00310031  RH  100%=      5-min Rain = 0
KWE2 150517Z 18011KT 03/03 A3015 RMK A01 T00320032  RH  100%=      5-min Rain = 0
KWE2 150518Z 17011KT 03/03 A3015 RMK A01 T00320032  RH  100%=      5-min Rain = 0
KWE2 150519Z 18011KT 03/03 A3015 RMK A01 T00330033  RH  100%=      5-min Rain = 0
KWE2 150520Z 17012KT 03/03 A3015 RMK A01 T00340032  RH  099%=      5-min Rain = 0
KWE2 150521Z 18011KT 03/03 A3015 RMK A01 T00340032  RH  098%=      5-min Rain = 0
KWE2 150522Z 18012KT 04/03 A3015 RMK A01 T00350032  RH  098%=      5-min Rain = 0
KWE2 150523Z 17012KT 04/03 A3015 RMK A01 T00350032  RH  098%=      5-min Rain = 0
KWE2 150524Z 18012KT 04/03 A3015 RMK A01 T00360031  RH  097%=      5-min Rain = 0
KWE2 150525Z 17013KT 04/03 A3015 RMK A01 T00360032  RH  098%=      5-min Rain = 0
KWE2 150526Z 18012KT 04/03 A3015 RMK A01 T00370032  RH  097%=      5-min Rain = 0
KWE2 150527Z 18012KT 04/03 A3015 RMK A01 T00370031  RH  096%=      5-min Rain = 0
KWE2 150528Z 17012KT 04/03 A3015 RMK A01 T00370031  RH  096%=      5-min Rain = 0
KWE2 150529Z 17013KT 04/03 A3015 RMK A01 T00370032  RH  096%=      5-min Rain = 0
KWE2 150530Z 18013KT 04/03 A3015 RMK A01 T00380032  RH  096%=      5-min Rain = 0
KWE2 150531Z 18012KT 04/03 A3015 RMK A01 T00380031  RH  095%=      5-min Rain = 0
KWE2 150532Z 17012KT 04/03 A3015 RMK A01 T00380030  RH  095%=      5-min Rain = 0
KWE2 150533Z 18011KT 04/03 A3015 RMK A01 T00370031  RH  096%=      5-min Rain = 0
KWE2 150534Z 18012KT 04/03 A3015 RMK A01 T00370031  RH  096%=      5-min Rain = 0
KWE2 150535Z 18012KT 04/03 A3015 RMK A01 T00370031  RH  096%=      5-min Rain = 0
KWE2 150536Z 17012KT 04/03 A3014 RMK A01 T00370031  RH  096%=      5-min Rain = 0
KWE2 150537Z 18012KT 04/03 A3014 RMK A01 T00370031  RH  096%=      5-min Rain = 0
KWE2 150538Z 18012KT 04/03 A3014 RMK A01 T00370031  RH  096%=      5-min Rain = 0
KWE2 150539Z 18012KT 04/03 A3014 RMK A01 T00370031  RH  096%=      5-min Rain = 0
KWE2 150540Z 18011KT 04/03 A3014 RMK A01 T00370032  RH  096%=      5-min Rain = 0
KWE2 150541Z 18011KT 04/03 A3014 RMK A01 T00380031  RH  096%=      5-min Rain = 0
KWE2 150542Z 18011KT 04/03 A3015 RMK A01 T00370031  RH  096%=      5-min Rain = 0
KWE2 150543Z 18011KT 04/03 A3015 RMK A01 T00360031  RH  096%=      5-min Rain = 0
KWE2 150544Z 18011KT 04/03 A3015 RMK A01 T00370031  RH  096%=      5-min Rain = 0
KWE2 150545Z 18011KT 04/03 A3015 RMK A01 T00360031  RH  097%=      5-min Rain = 0
KWE2 150546Z 18011KT 04/03 A3015 RMK A01 T00360031  RH  096%=      5-min Rain = 0
KWE2 150547Z 18010KT 04/03 A3014 RMK A01 T00360030  RH  096%=      5-min Rain = 0
KWE2 150548Z 18011KT 04/03 A3014 RMK A01 T00360031  RH  097%=      5-min Rain = 0
KWE2 150549Z 18010KT 04/03 A3014 RMK A01 T00360031  RH  097%=      5-min Rain = 0
KWE2 150550Z 18010KT 04/03 A3014 RMK A01 T00350031  RH  097%=      5-min Rain = 0
KWE2 150551Z 18010KT 04/03 A3014 RMK A01 T00350031  RH  097%=      5-min Rain = 0
KWE2 150552Z 18009KT 04/03 A3014 RMK A01 T00350032  RH  098%=      5-min Rain = 0
KWE2 150553Z 18010KT 04/03 A3014 RMK A01 T00350031  RH  097%=      5-min Rain = 0
KWE2 150554Z 18010KT 04/03 A3014 RMK A01 T00350031  RH  097%=      5-min Rain = 0
KWE2 150555Z 18010KT 03/03 A3014 RMK A01 T00340031  RH  098%=      5-min Rain = 0
KWE2 150556Z 18010KT 03/03 A3014 RMK A01 T00340032  RH  098%=      5-min Rain = 0
KWE2 150557Z 18009KT 03/03 A3014 RMK A01 T00340032  RH  098%=      5-min Rain = 0
KWE2 150558Z 18010KT 03/03 A3014 RMK A01 T00340031  RH  098%=      5-min Rain = 0
KWE2 150559Z 18010KT 03/03 A3014 RMK A01 T00330030  RH  098%=      5-min Rain = 0

Page generated in 0.1515 seconds.